GFSNE_925_thetae_000.txt.gz
Theta_e
296 296 296 295 295 295 296 296 296 296 295 295 297 297 298 298 300 300 300 299 298 298 296 296 297 298 297 298 301 303 305 305 305 303 301 302 303 304
295 295 294 295 295 294 294 294 295 295 295 295 295 295 294 296 297 299 299 299 298 297 296 296 296 296 296 295 294 294 295 296 296 297 296 296 296 297
293 293 293 293 293 293 293 293 293 293 293 293 294 294 294 294 296 295 296 296 296 296 295 295 294 294 294 293 294 294 293 294 295 295 296 296 295 295
292 292 292 292 292 291 291 291 291 292 292 291 292 292 292 292 292 293 294 296 296 296 296 295 294 294 293 293 292 292 291 292 292 293 295 296 297 295
288 289 290 290 290 290 290 290 290 290 289 290 290 290 290 291 291 291 292 293 294 294 294 294 293 293 293 292 292 292 292 292 291 291 291 293 295 296
286 286 286 288 289 289 289 289 288 288 287 287 288 288 289 290 290 290 291 291 291 292 293 293 293 293 292 292 292 292 292 292 291 291 290 291 291 293
284 284 285 286 287 287 288 287 287 286 286 286 286 287 288 289 290 290 291 291 291 292 292 292 292 292 292 292 292 291 291 291 291 291 291 290 290 291
283 283 284 285 286 287 286 286 285 284 284 284 284 285 285 286 287 287 288 289 288 290 290 290 290 291 291 292 293 293 292 292 292 291 291 291 290 290
282 282 283 284 284 285 285 284 284 285 285 284 284 284 284 284 284 285 286 287 287 288 288 288 289 289 289 290 291 290 290 291 290 291 292 291 291 290
281 281 282 282 283 283 283 282 283 283 283 283 284 284 284 284 284 285 286 286 286 286 287 287 288 288 288 288 289 289 289 288 288 290 290 290 291 291
280 281 282 282 282 282 282 282 282 282 283 283 283 284 284 284 284 284 284 284 285 286 287 287 287 287 287 287 288 288 287 286 287 287 288 288 289 289
280 280 280 281 281 281 281 282 282 283 283 282 282 282 282 282 283 284 285 284 283 284 284 286 286 287 287 287 287 287 287 288 288 288 287 287 288 289
279 279 280 281 280 280 280 280 280 280 280 280 280 280 281 282 282 283 284 285 284 284 284 285 286 287 287 287 287 287 288 288 288 289 289 289 288 288
278 279 279 280 280 279 279 279 279 279 278 279 280 281 282 283 283 284 284 285 286 285 285 286 286 286 286 286 287 288 288 288 289 289 289 289 290 290
277 278 278 279 278 279 280 280 280 279 280 281 281 282 282 282 283 283 284 285 285 286 286 287 286 286 286 286 286 287 288 288 287 289 289 289 289 289
276 278 278 277 278 279 279 279 279 280 280 281 281 281 282 283 284 284 286 286 286 286 286 286 286 286 286 286 286 286 287 287 287 288 288 288 289 289
277 277 277 276 277 278 278 278 279 279 279 279 280 281 282 282 283 284 285 286 287 287 287 287 287 286 286 286 286 286 286 286 287 287 287 289 288 288
277 277 276 276 277 277 278 277 278 278 278 279 280 280 281 282 283 284 285 287 287 287 287 288 288 287 286 286 285 285 286 286 287 287 287 288 288 288
276 276 276 276 276 276 277 277 277 278 278 278 280 280 280 281 283 283 284 284 285 286 288 288 288 287 286 285 286 286 285 286 287 287 287 287 287 288
275 275 275 275 275 275 276 276 277 277 277 277 279 279 280 281 282 283 282 283 284 285 287 284 284 283 285 285 286 283 284 285 285 285 285 286 286 287
274 275 275 275 275 275 275 275 276 277 277 276 277 279 280 281 281 281 282 282 283 284 284 284 283 283 284 285 285 282 282 281 281 282 283 284 286 286
274 274 274 274 274 274 274 274 275 275 275 275 276 277 278 280 281 281 281 282 282 282 283 283 284 283 284 284 284 284 282 282 281 281 281 281 282 282
273 273 273 273 273 272 273 272 273 273 273 273 274 275 277 278 279 280 280 281 280 280 280 281 283 283 283 283 283 283 282 282 282 281 281 280 280 281

GFSNE_925_thetae_003.txt.gz
Theta_e
294 294 295 295 295 294 294 295 295 295 294 294 294 293 293 295 297 299 300 300 299 299 299 297 297 297 298 300 303 307 310 311 309 308 307 305 304 305
292 292 293 293 293 292 292 292 292 293 293 293 293 293 293 294 294 296 296 298 299 299 297 296 296 296 297 297 297 297 300 303 304 303 300 297 296 296
291 291 290 290 291 292 292 291 291 291 291 291 291 292 292 292 292 293 294 296 296 297 297 297 295 295 294 294 294 295 294 295 295 295 295 296 296 296
287 287 286 286 287 288 290 291 290 290 290 289 289 289 289 290 290 291 292 293 295 296 296 295 295 295 294 293 293 292 292 293 293 293 294 294 295 296
285 285 285 285 285 286 287 288 289 289 287 287 287 287 287 288 288 289 290 291 292 293 295 295 294 294 293 293 293 292 292 292 292 292 292 292 292 293
284 284 283 283 284 285 286 287 288 288 287 286 285 285 285 286 287 289 289 289 290 291 292 292 293 293 293 293 292 292 292 292 292 292 292 292 291 291
282 281 281 283 284 285 286 287 287 286 286 285 284 284 284 285 285 286 286 286 288 289 289 289 290 291 292 292 292 292 292 292 292 292 291 291 291 291
281 280 281 282 283 283 284 285 285 284 284 284 283 283 283 284 284 284 284 285 285 287 287 288 288 288 289 290 291 292 292 292 292 292 292 291 291 291
281 280 280 281 281 282 282 282 282 283 283 284 284 284 283 283 283 283 283 284 285 285 286 286 287 287 288 288 289 290 290 290 290 290 291 291 291 291
281 280 280 281 281 282 282 282 282 282 282 281 282 283 283 283 283 283 283 284 284 284 285 285 285 286 286 287 287 288 288 288 287 288 288 287 289 290
280 279 280 280 280 281 281 281 282 282 282 282 282 283 283 284 284 284 284 283 283 283 283 284 285 286 286 286 286 286 286 287 286 287 287 286 286 286
279 279 279 280 281 280 280 280 279 279 279 280 281 281 281 281 281 281 283 284 283 283 283 283 283 284 285 286 286 286 286 286 286 287 288 288 288 287
278 278 278 279 280 280 280 279 279 279 279 279 278 278 279 279 280 280 281 282 283 284 284 284 284 285 285 286 286 285 286 286 287 287 288 288 288 288
277 277 277 279 279 279 279 279 279 279 278 278 278 279 280 281 281 282 282 283 283 284 284 284 284 284 284 285 285 285 285 287 287 288 288 288 288 288
277 277 278 277 277 278 278 278 279 279 279 280 280 280 280 280 281 281 282 283 283 284 285 285 285 285 285 285 285 285 285 286 287 286 287 288 288 289
276 277 276 276 277 278 277 277 278 278 278 278 279 280 281 282 282 283 284 284 285 285 286 285 285 286 285 285 285 284 285 285 286 286 286 286 287 287
277 277 276 276 276 277 277 277 277 277 278 278 279 280 280 281 282 283 284 285 285 286 286 287 287 286 286 285 285 285 285 285 285 285 286 286 286 287
276 276 276 276 275 276 276 276 276 277 277 278 279 280 280 281 282 283 283 284 285 285 287 287 287 287 286 286 286 286 285 285 285 286 287 286 286 285
275 275 275 275 275 275 275 275 275 277 276 277 277 278 280 281 282 282 282 283 283 285 285 285 285 286 286 284 286 285 285 284 285 285 286 287 286 286
275 275 275 275 274 274 274 274 274 275 275 275 276 277 278 280 281 281 281 282 282 283 283 283 283 283 284 281 284 284 284 284 285 285 285 285 285 285
274 274 274 274 273 273 273 273 273 273 273 274 275 276 277 279 280 281 281 281 281 281 282 282 283 283 284 284 282 282 283 282 282 281 282 282 283 284
274 273 273 273 273 272 272 272 272 271 272 272 273 275 276 276 278 280 280 280 279 279 280 281 283 283 283 283 282 282 282 282 281 281 281 281 282 281
275 274 273 273 272 271 271 271 271 271 270 271 272 274 275 275 277 278 279 278 279 279 279 280 282 282 283 283 283 283 282 282 282 282 281 280 280 280

GFSNE_925_thetae_006.txt.gz
Theta_e
290 291 292 291 291 292 292 290 290 292 293 293 292 292 292 292 293 294 297 298 300 300 300 300 299 297 299 298 298 300 305 310 309 310 309 309 307 306
290 291 289 287 286 286 288 291 291 290 291 290 291 291 290 290 291 291 293 294 297 298 299 299 297 297 296 297 297 298 298 303 306 307 306 305 300 297
287 287 286 286 285 285 285 285 289 291 291 290 290 289 289 289 289 290 292 293 294 295 295 298 297 296 295 294 294 295 296 295 296 298 298 297 297 297
286 285 285 285 284 284 284 284 286 287 289 289 288 287 288 287 287 288 290 291 292 293 294 295 296 294 295 294 293 293 293 294 294 294 293 293 294 295
285 284 283 282 281 282 283 284 285 285 287 287 287 286 286 286 286 286 287 288 289 291 292 292 295 296 295 294 294 293 292 292 292 292 292 292 292 292
284 283 281 280 281 282 284 285 285 286 286 286 285 285 284 284 284 285 285 286 286 288 291 291 291 293 295 294 293 292 292 292 292 292 292 292 291 291
284 282 280 280 281 282 283 284 284 284 284 284 284 283 283 283 283 284 283 283 284 287 287 288 289 289 291 292 292 292 292 292 292 292 292 291 291 291
282 281 280 280 280 281 282 282 283 283 283 283 283 282 283 283 283 283 283 283 283 284 285 285 286 287 287 288 290 291 292 292 291 291 292 292 292 291
281 280 280 280 280 280 280 281 281 282 282 282 282 282 283 283 283 283 282 282 283 285 285 285 285 285 285 286 288 289 289 289 289 289 289 289 290 291
280 279 279 279 279 280 280 281 281 281 281 282 282 281 282 282 282 283 283 283 283 284 284 284 284 285 285 285 286 287 287 288 288 288 288 287 286 286
278 278 279 279 279 281 280 280 280 280 280 280 282 282 282 283 283 283 283 283 283 282 282 283 283 283 283 284 285 286 286 286 286 287 286 286 286 286
277 277 278 278 279 280 281 280 280 279 279 278 279 279 279 280 280 281 282 283 283 282 283 282 283 283 283 284 284 284 286 286 286 287 287 286 287 288
276 277 277 278 279 279 279 279 279 280 279 279 279 278 278 279 279 279 280 280 281 282 283 283 283 284 284 285 285 285 285 285 285 286 287 287 287 288
276 277 278 278 278 278 278 278 279 279 279 279 279 279 279 280 280 281 281 282 282 282 282 283 283 284 283 284 284 284 285 285 285 287 287 287 287 288
277 277 277 277 277 277 277 277 278 278 278 278 279 279 280 281 281 281 281 281 282 282 283 284 284 284 284 283 284 285 285 285 285 286 287 286 287 287
276 276 276 275 276 276 276 276 277 277 277 278 279 279 280 281 282 282 283 283 284 284 285 285 284 284 285 284 285 285 285 285 285 285 286 286 285 285
276 275 275 275 275 275 275 275 276 276 277 277 278 279 280 281 281 283 283 284 284 284 285 286 286 286 285 285 284 284 284 285 285 285 285 285 285 285
275 275 275 274 274 274 274 274 275 275 275 276 277 278 279 280 281 282 282 283 284 284 284 284 286 286 285 285 285 285 285 284 284 285 285 285 285 286
274 274 274 274 273 273 273 273 273 274 274 275 275 276 277 280 281 281 281 282 283 283 283 283 284 286 286 284 285 284 284 284 284 284 285 285 285 285
274 274 274 273 273 272 272 272 272 272 273 274 274 275 276 277 279 280 281 281 281 282 282 283 283 283 283 280 282 284 283 282 283 284 285 285 284 285
274 273 273 273 272 272 272 271 271 270 271 272 273 274 275 276 277 279 280 279 279 279 279 280 282 283 283 283 281 283 283 282 281 281 282 281 282 283
275 274 273 273 272 271 271 271 271 270 270 271 272 273 274 275 276 277 278 278 278 278 279 281 282 283 283 282 282 282 282 281 281 281 281 280 281 278
276 275 274 273 272 271 271 270 270 270 269 270 272 273 273 274 275 275 277 277 277 277 278 279 281 282 282 282 282 283 282 281 282 281 282 281 280 280

GFSNE_925_thetae_009.txt.gz
Theta_e
289 289 290 289 287 286 286 287 290 289 288 290 291 290 289 289 290 291 292 293 295 295 300 299 300 300 299 300 299 299 299 304 309 308 310 310 309 307
289 289 287 286 286 286 285 285 285 289 289 289 290 290 289 289 288 289 293 295 294 294 297 296 297 299 301 300 299 298 298 298 305 306 307 306 305 302
287 286 285 285 284 284 283 283 283 284 287 287 288 290 290 288 289 288 289 292 293 293 294 295 294 297 297 297 297 296 298 295 296 301 303 303 301 299
285 285 284 283 282 281 281 281 282 283 285 285 288 288 287 286 286 288 287 287 290 291 292 292 292 293 296 295 295 294 294 296 294 293 293 294 294 295
285 284 283 282 281 280 280 282 282 283 284 284 285 287 288 286 286 286 286 285 286 289 290 291 292 291 294 295 294 293 293 292 293 292 292 292 292 292
284 283 282 281 280 281 281 282 283 283 283 283 284 285 285 284 284 284 284 284 284 285 287 287 291 290 293 295 295 293 292 292 291 291 291 292 291 291
283 283 282 281 281 281 281 281 282 282 283 283 283 283 283 283 283 283 283 283 283 283 285 286 286 289 288 290 292 293 292 292 291 291 291 291 291 291
283 281 281 280 279 280 280 281 281 282 282 282 282 283 283 283 283 283 283 282 281 283 284 284 285 286 286 286 289 291 292 292 292 292 291 291 291 291
281 280 279 279 279 279 279 280 280 281 282 282 282 282 282 282 282 283 282 282 282 282 284 284 284 284 285 285 286 289 289 290 290 290 291 291 291 291
278 277 278 278 278 279 280 280 280 280 280 280 281 281 281 281 281 282 282 282 282 283 283 283 283 283 283 284 285 285 287 288 287 288 288 288 288 288
277 277 278 278 278 279 280 280 281 280 280 280 280 280 281 282 282 282 282 282 282 282 283 282 283 283 283 283 283 285 285 286 286 286 287 287 286 286
277 277 277 278 279 279 279 279 279 279 279 279 279 279 279 279 280 281 281 282 283 282 283 282 282 283 283 284 284 283 284 285 285 286 286 286 286 286
277 276 277 278 278 279 278 278 279 279 279 279 279 279 279 279 279 279 279 279 280 280 281 282 283 283 283 283 284 284 285 285 285 285 286 287 286 287
277 277 277 277 277 278 277 278 278 277 278 278 278 279 279 280 280 280 280 280 280 280 280 281 282 283 283 283 283 284 284 284 284 285 285 287 286 287
276 277 276 276 276 275 276 276 276 277 277 277 278 278 279 280 280 281 281 281 281 281 282 282 282 282 283 283 283 284 284 285 285 284 286 287 286 286
275 275 275 274 274 274 275 275 276 276 276 277 277 278 279 280 281 282 282 282 282 283 283 284 283 283 283 283 283 283 284 284 285 285 285 286 286 286
275 275 274 274 274 274 273 274 274 275 275 275 276 277 278 280 281 282 283 283 283 284 284 285 285 285 284 284 284 284 283 283 284 285 284 284 285 286
274 274 274 273 273 273 272 273 273 273 274 274 275 276 277 279 280 281 282 282 283 283 283 283 284 284 284 284 284 284 284 284 284 284 284 284 284 284
274 274 273 273 272 272 272 272 271 271 272 274 274 275 276 278 279 280 281 281 282 282 282 283 283 284 286 284 284 284 284 284 284 283 283 283 283 285
274 273 273 273 272 272 271 271 271 270 271 273 274 274 275 276 277 278 279 279 279 280 280 282 282 282 282 277 281 283 283 282 282 283 283 284 284 284
275 274 273 273 272 271 271 271 271 269 270 272 273 273 274 275 275 276 277 278 278 278 279 280 281 282 283 282 280 282 282 282 281 281 281 282 281 281
276 275 274 273 272 272 271 270 270 269 269 271 272 273 273 274 274 275 276 276 277 277 277 279 281 282 283 282 281 282 282 281 281 281 281 280 280 277
277 276 275 274 273 272 271 271 270 269 269 269 271 272 272 273 274 274 275 275 275 276 276 278 280 280 281 281 281 282 282 281 281 281 281 281 280 280

GFSNE_925_thetae_012.txt.gz
Theta_e
288 288 289 289 288 286 286 285 286 286 285 286 287 287 286 289 290 289 289 294 294 293 294 296 299 300 300 300 299 299 298 299 305 307 310 311 310 309
288 288 288 286 285 285 284 283 282 283 284 285 285 286 285 286 289 289 288 291 294 293 294 294 295 297 299 300 299 300 300 299 300 307 309 309 307 305
288 287 286 285 284 283 282 281 281 281 282 282 283 284 284 286 289 288 289 288 290 293 292 292 292 294 297 298 298 298 300 298 298 302 304 305 304 301
287 285 285 284 283 282 281 280 280 281 281 282 283 284 284 288 287 287 287 289 287 289 291 291 291 292 294 297 296 296 297 297 295 295 297 301 301 300
285 285 284 283 282 281 280 280 280 281 282 283 283 283 284 285 287 287 287 285 287 286 288 288 290 291 292 296 296 295 295 295 298 294 292 292 293 294
285 283 283 282 281 281 281 280 280 281 281 282 283 283 283 285 285 284 284 285 284 284 285 286 288 289 291 293 293 295 294 293 293 294 295 292 292 292
284 283 282 281 282 281 280 280 280 280 281 282 282 282 283 283 282 283 283 283 283 283 283 284 286 287 288 291 291 294 293 292 291 291 291 291 291 291
281 280 279 279 279 279 279 279 280 280 280 281 281 282 282 282 282 282 282 282 282 282 283 283 284 285 286 287 290 292 292 292 291 291 291 291 291 291
278 278 277 278 278 278 278 279 280 280 280 281 281 281 282 282 282 281 282 282 282 282 282 282 283 283 284 285 288 289 290 292 292 292 291 291 291 291
277 277 277 277 278 278 279 280 279 280 280 280 280 280 280 281 281 281 281 281 282 282 282 283 283 283 283 283 284 287 288 289 289 290 290 290 290 290
277 277 277 277 278 279 279 279 279 279 279 280 280 280 280 280 280 282 281 281 281 281 281 282 282 282 283 283 283 284 285 286 287 287 287 287 287 287
277 277 276 277 278 279 279 278 278 279 279 279 279 279 279 279 279 279 280 281 282 281 282 282 282 282 282 283 283 283 283 285 285 286 286 286 286 286
277 276 277 277 278 278 278 277 278 277 277 278 278 279 279 279 279 279 278 279 280 280 281 282 282 282 283 283 283 284 284 283 284 285 285 286 286 286
276 276 277 277 276 276 276 277 277 276 276 277 277 278 279 279 279 280 280 279 279 279 280 280 281 282 282 282 282 283 284 284 284 285 284 285 286 287
275 276 275 275 274 274 274 275 275 275 276 276 277 277 278 279 280 280 280 280 280 281 281 281 281 281 282 282 283 283 284 284 284 284 284 284 286 287
275 274 274 274 274 273 273 274 274 274 274 275 275 276 278 279 280 281 281 281 281 281 282 282 282 282 282 282 282 283 282 283 284 284 284 285 286 286
274 274 274 273 273 273 272 272 272 272 273 274 274 275 277 278 280 281 282 282 282 283 283 284 284 283 283 283 284 283 283 283 283 283 284 284 284 286
274 273 273 273 272 272 272 271 271 270 272 273 274 274 275 277 278 280 281 281 282 282 282 282 283 283 283 283 283 284 284 283 283 284 284 283 284 284
275 273 273 273 272 271 271 271 271 270 271 273 273 274 275 277 277 278 279 279 280 281 281 282 282 284 285 285 283 283 283 284 284 284 283 283 283 283
275 274 274 273 272 271 271 271 270 269 270 272 273 273 274 275 276 276 277 277 278 278 279 280 281 281 282 283 282 282 282 282 282 282 282 283 283 283
276 275 274 274 272 272 271 270 270 269 269 271 272 272 273 274 274 275 276 276 277 276 277 278 279 281 282 281 281 281 282 281 281 281 281 282 281 281
278 276 275 274 273 272 271 270 270 269 269 269 271 272 272 272 273 273 275 275 275 275 275 278 280 281 281 282 280 281 281 281 281 281 281 280 280 281
279 277 276 275 274 273 272 271 271 270 269 269 270 271 271 271 272 273 274 274 274 274 275 276 278 279 280 280 280 280 280 281 280 281 281 281 280 280

GFSNE_925_thetae_015.txt.gz
Theta_e
290 290 290 290 290 289 288 287 287 288 288 287 286 286 286 286 287 288 290 290 291 294 295 295 295 297 299 301 300 298 298 300 303 307 311 312 312 310
289 290 290 289 287 287 286 286 285 285 287 284 284 283 284 284 286 286 289 290 288 292 293 292 292 293 295 297 299 300 300 299 299 305 306 310 311 309
290 289 288 287 286 286 285 284 284 283 284 283 283 283 284 285 285 285 288 290 290 288 291 291 291 291 292 294 297 299 300 300 300 304 307 309 308 307
288 287 286 286 285 285 284 283 283 282 282 282 282 283 284 285 285 286 288 288 289 289 287 288 289 291 291 292 295 298 298 297 299 300 304 304 303 304
286 286 285 284 284 284 283 282 282 282 281 282 282 282 283 284 285 286 287 288 287 286 287 287 288 289 291 292 294 296 297 295 296 299 301 303 303 303
285 284 284 283 283 282 282 282 281 281 281 281 281 282 283 283 284 285 286 287 286 285 285 285 286 288 290 291 292 295 295 295 295 293 296 299 300 300
284 283 281 281 280 280 280 280 280 280 281 281 281 282 283 282 284 284 285 286 285 285 285 285 286 287 289 290 291 292 294 294 294 295 293 292 292 292
281 280 280 279 279 279 279 279 279 280 281 281 283 282 282 282 282 284 283 284 286 284 285 285 285 285 287 288 289 291 292 293 292 293 293 292 293 294
280 279 279 279 278 279 279 279 280 280 280 281 281 281 281 281 282 282 283 283 283 284 283 284 284 284 285 285 288 290 291 292 291 291 291 291 291 291
279 278 278 278 279 278 280 280 280 279 280 280 281 281 281 281 281 281 282 282 282 283 283 284 284 284 284 285 285 288 290 291 291 291 291 291 291 291
279 279 278 278 278 279 279 279 279 279 279 279 279 280 280 280 280 280 282 282 282 282 282 283 283 284 284 284 285 285 287 289 288 288 288 289 290 290
278 278 278 277 278 278 278 278 278 279 278 278 279 279 280 280 280 280 280 282 283 283 283 283 283 283 285 285 285 284 285 286 288 288 287 287 287 289
278 277 277 277 277 277 276 277 278 277 277 278 278 279 279 280 280 280 280 280 281 282 282 283 284 284 284 285 285 285 285 285 286 286 286 286 286 287
277 276 276 276 276 275 275 275 275 276 277 278 278 279 279 280 280 281 281 281 280 281 282 282 282 283 283 284 284 285 285 285 285 286 286 286 285 285
277 276 275 275 274 274 274 274 274 275 276 277 277 278 279 279 280 281 281 281 281 281 280 281 281 282 282 283 283 284 285 286 285 286 286 286 286 287
276 275 274 274 274 274 274 274 274 273 274 276 276 277 278 279 281 282 283 283 282 282 282 281 282 282 283 283 283 283 283 285 286 286 286 286 285 285
276 275 275 274 274 274 274 273 273 272 274 274 276 277 278 279 280 281 282 283 284 284 285 283 283 282 283 284 284 283 284 284 284 285 284 285 286 286
277 276 275 274 274 274 274 273 273 272 272 273 275 276 277 278 279 280 281 283 284 284 284 283 284 284 284 283 283 286 285 285 284 284 284 285 286 286
277 277 276 275 274 274 273 273 273 271 270 272 273 274 275 277 278 279 280 280 281 282 282 283 284 285 287 288 284 283 285 285 285 284 285 284 285 286
277 277 276 275 274 274 273 272 272 271 270 271 272 273 273 275 277 278 278 278 279 280 281 282 282 282 284 286 286 283 283 284 284 284 284 283 283 283
279 278 277 276 275 274 273 272 271 271 270 270 271 272 272 273 275 276 277 276 277 278 279 280 280 280 280 281 284 284 282 282 282 282 283 283 283 283
279 278 277 276 275 274 273 272 272 272 271 271 270 271 271 272 273 274 275 276 276 276 277 278 279 281 282 283 283 283 282 281 281 281 280 281 283 285
280 279 278 277 276 275 274 273 272 272 271 270 270 271 271 271 272 273 274 275 275 275 276 277 278 279 281 281 281 282 281 281 282 282 281 281 280 280

GFSNE_925_thetae_018.txt.gz
Theta_e
292 292 291 291 290 290 290 289 290 291 291 288 288 287 287 286 286 286 286 288 288 290 290 294 293 293 295 296 299 300 299 300 305 309 310 310 313 313
291 291 291 290 290 289 289 289 288 288 291 287 287 286 286 286 286 286 287 287 287 289 289 292 292 292 291 293 295 298 299 299 299 304 307 311 309 311
291 290 291 289 289 288 288 288 287 287 287 286 285 285 285 285 286 286 287 287 288 290 289 288 288 290 291 291 292 294 298 299 299 300 304 305 309 311
290 290 290 288 288 288 287 287 286 286 285 285 285 284 284 284 285 285 286 287 288 290 290 289 289 288 289 290 291 292 295 298 299 299 301 304 308 310
290 289 288 288 287 287 286 285 285 284 284 284 284 283 283 284 284 285 285 287 288 289 288 287 287 287 287 288 290 292 295 297 297 299 300 303 305 306
289 288 287 286 285 284 283 283 283 283 283 283 283 283 284 284 284 284 286 286 288 288 288 286 286 286 286 288 290 291 294 296 296 296 300 300 303 305
287 286 284 283 281 280 280 281 281 281 282 282 283 283 284 284 284 284 284 285 286 288 288 287 287 288 289 289 291 290 292 294 295 293 294 300 302 304
285 284 283 282 282 280 280 280 280 280 281 282 283 283 283 283 283 283 284 285 286 286 287 287 287 287 287 288 288 288 290 293 293 294 291 292 292 294
283 283 282 282 281 281 280 280 281 281 281 281 281 282 282 283 283 283 283 284 284 284 285 286 286 286 287 287 286 287 290 292 292 293 294 293 293 293
282 282 282 281 281 279 280 280 281 281 280 280 280 281 281 282 282 282 282 282 283 283 284 285 285 286 286 287 286 285 288 291 291 291 293 293 292 291
282 281 280 280 279 278 279 279 280 280 280 280 279 279 280 280 280 281 281 282 283 284 284 284 284 285 285 286 287 286 285 289 291 291 291 291 291 291
282 281 279 279 278 278 278 278 279 279 279 279 279 280 280 281 281 281 281 282 283 284 284 284 284 285 286 286 286 287 286 287 288 288 288 291 291 292
281 281 280 278 277 277 276 277 277 276 278 279 279 280 281 281 281 282 282 282 282 283 284 284 284 285 285 287 287 287 287 288 287 288 288 287 288 290
280 281 279 277 276 276 276 275 275 276 278 279 279 280 281 281 282 282 283 283 282 282 282 283 284 285 285 286 287 286 287 287 287 289 288 288 287 287
280 279 276 276 276 276 276 275 275 277 277 278 279 279 280 281 282 282 283 283 283 282 282 282 283 283 284 284 285 286 287 287 287 288 288 289 289 288
280 279 278 276 277 277 277 277 276 275 276 278 278 279 280 281 283 283 285 285 284 284 282 282 282 282 283 283 284 285 286 287 287 287 288 288 288 288
279 279 280 279 278 278 278 277 277 275 276 277 278 278 279 280 281 283 283 285 285 286 286 284 283 283 284 284 285 285 285 285 286 287 287 287 287 287
279 281 281 280 279 278 278 278 277 276 275 276 277 278 278 279 280 281 282 284 285 285 286 286 286 285 284 284 284 287 285 286 285 286 285 286 287 287
280 281 281 280 279 278 278 277 277 276 274 274 276 277 277 278 280 280 281 281 282 283 284 285 286 287 288 288 286 284 286 287 286 286 286 286 286 287
280 281 281 280 280 279 278 277 276 276 275 274 275 275 276 277 279 279 280 280 280 281 282 283 284 284 284 286 287 284 283 286 286 287 287 286 286 284
283 282 281 280 280 279 278 277 275 275 274 274 275 275 275 276 277 277 278 279 279 280 281 282 282 281 282 283 285 285 283 283 284 285 285 285 285 285
283 282 282 281 280 279 278 277 276 276 276 275 275 275 275 275 275 276 277 278 278 278 279 280 281 282 283 284 286 284 284 282 282 282 283 283 284 287
283 282 282 281 280 279 278 278 277 276 275 274 274 274 274 275 275 275 276 276 277 277 278 279 281 282 283 283 283 284 283 283 283 283 282 281 281 280

GFSNE_925_thetae_021.txt.gz
Theta_e
296 295 294 293 292 292 291 291 291 293 292 290 290 289 289 288 288 288 287 288 288 288 287 288 290 290 293 292 292 293 297 299 301 302 305 308 312 312
295 294 293 293 292 291 290 290 290 290 292 289 289 288 287 287 287 287 287 288 287 288 288 287 289 290 292 291 291 291 292 296 297 299 300 304 308 310
295 293 293 292 292 291 290 289 289 289 290 289 288 287 287 286 286 286 286 286 287 288 288 289 289 289 288 288 290 290 292 292 297 298 299 300 304 308
293 292 292 291 290 289 289 288 288 288 288 288 286 286 286 285 285 285 286 286 287 287 288 290 289 289 289 288 288 288 290 292 294 298 298 299 300 305
292 291 291 290 289 288 287 287 286 286 286 285 285 285 285 285 285 285 285 286 286 287 288 289 288 288 288 288 287 288 289 291 294 296 297 298 299 301
291 290 290 288 286 285 284 284 284 284 284 283 284 284 284 284 285 285 285 285 286 287 287 289 288 288 287 286 286 289 290 290 293 295 296 296 299 300
290 289 287 285 283 282 282 282 282 282 282 282 283 283 284 284 285 284 285 285 285 286 287 288 289 288 288 289 289 290 290 288 291 294 294 295 298 300
288 287 286 285 284 282 282 281 281 281 282 282 283 282 282 283 284 284 284 284 285 285 286 287 287 289 288 288 289 288 287 287 291 293 294 294 299 300
286 285 285 284 284 283 282 281 281 281 282 282 282 282 283 282 282 283 283 284 284 284 285 286 286 287 287 288 287 286 286 286 291 292 294 293 292 292
285 285 284 284 282 281 280 280 281 281 281 281 281 281 281 280 280 281 281 282 283 283 284 285 285 285 286 287 287 287 286 286 290 292 293 292 292 291
285 284 283 282 281 279 279 279 280 280 281 280 280 280 280 280 280 281 281 282 283 283 284 285 285 285 286 286 287 287 287 286 289 291 292 291 291 292
284 284 283 280 279 278 278 278 279 280 278 278 279 280 281 282 282 281 282 283 283 283 284 285 286 285 286 286 286 287 287 286 288 289 291 291 291 292
283 283 283 281 278 277 277 277 278 276 277 279 280 281 281 282 283 283 283 283 284 283 283 284 285 285 286 287 288 288 288 289 287 288 288 290 290 291
283 283 282 280 277 277 277 277 276 277 279 279 280 281 281 281 282 283 283 283 283 284 283 283 284 285 286 287 288 288 288 288 289 288 289 289 290 289
282 281 280 279 278 279 279 278 277 279 278 279 280 280 280 281 282 283 284 284 284 284 283 283 283 284 285 285 286 287 287 288 289 289 290 289 289 290
282 283 281 280 280 280 280 280 280 279 277 278 279 280 280 281 282 282 284 284 286 285 284 283 283 283 284 284 285 285 286 287 288 288 289 289 290 290
282 281 282 282 282 281 281 281 280 280 278 277 278 279 280 280 281 282 283 284 286 287 287 284 283 283 284 284 285 285 286 287 287 288 288 288 288 289
281 282 282 283 282 281 281 281 280 280 279 277 277 278 279 279 280 281 282 283 284 285 286 286 285 284 284 284 284 286 286 286 286 286 287 288 288 288
281 282 283 283 282 281 281 280 280 279 278 278 277 278 278 278 279 281 281 281 282 283 284 285 286 286 288 287 287 284 285 287 287 286 286 285 287 287
282 282 283 283 282 282 281 281 280 279 278 277 277 278 277 277 278 279 280 280 280 281 282 283 284 283 284 285 287 284 283 285 287 287 287 286 286 286
284 284 284 283 282 282 281 280 279 278 278 277 278 277 277 277 277 278 279 279 279 281 281 281 282 281 283 284 286 285 283 283 285 285 287 287 287 286
284 284 284 284 283 282 281 280 279 279 279 278 278 277 277 277 278 277 278 278 279 279 279 280 282 283 284 285 286 285 285 283 282 283 284 284 284 287
285 284 284 283 283 282 281 280 280 279 278 278 277 277 276 277 277 277 277 277 278 278 278 279 281 283 284 284 283 286 284 284 283 283 282 281 281 281

GFSNE_925_thetae_027.txt.gz
Theta_e
297 297 296 296 295 294 293 293 291 287 288 289 289 289 288 287 287 287 286 285 285 286 285 286 287 287 288 289 289 290 290 292 293 294 295 296 298 300
295 295 296 295 294 293 292 291 290 289 286 287 286 286 286 286 285 285 284 285 284 284 285 286 286 286 288 288 289 290 290 291 291 292 293 295 296 299
294 294 294 293 292 291 290 289 287 285 284 284 284 284 284 283 283 284 284 284 285 285 285 285 286 286 287 288 288 290 290 290 290 290 290 291 295 297
293 292 292 291 290 289 288 287 285 284 283 282 282 282 282 283 283 282 283 284 283 284 285 284 286 286 286 286 287 288 289 289 289 287 289 289 291 295
292 292 291 290 289 288 286 285 284 283 282 282 281 281 281 281 282 282 283 283 283 283 283 284 284 285 286 287 287 289 289 288 288 288 288 288 290 293
291 290 289 288 286 285 285 284 283 282 282 281 281 280 281 281 282 282 282 282 282 281 282 284 284 284 284 285 287 288 288 288 288 288 287 287 288 292
289 288 287 286 285 285 283 283 282 282 281 281 280 281 281 281 281 282 281 281 280 280 281 283 282 283 283 285 287 288 288 289 289 286 286 286 290 292
288 287 286 285 284 284 283 282 282 281 281 281 281 281 281 281 281 280 280 279 279 280 280 280 281 282 283 284 285 286 287 286 286 286 286 287 291 292
287 286 285 285 284 283 283 282 281 278 280 280 280 279 278 279 279 279 280 280 280 280 280 281 281 282 282 283 284 284 287 287 286 286 286 289 291 292
286 286 285 284 284 283 282 281 279 277 278 279 279 278 278 279 280 281 281 281 281 281 281 281 282 282 283 283 285 284 285 285 286 286 286 289 292 292
286 285 284 284 283 282 281 280 278 277 278 278 278 279 279 280 281 282 282 282 281 281 281 281 282 283 283 285 285 285 285 285 286 286 286 290 291 291
285 284 284 283 282 282 281 279 277 278 278 278 278 278 279 280 280 280 281 281 282 282 283 283 283 283 283 285 284 285 286 286 287 287 288 290 290 290
284 284 283 283 282 281 280 279 279 279 278 279 278 278 279 279 279 280 280 281 282 283 283 283 283 283 283 284 285 284 286 287 287 288 288 289 289 290
284 283 282 282 282 281 281 280 280 279 279 279 278 278 278 278 279 279 280 280 282 282 284 284 283 283 283 283 284 284 284 287 288 288 288 288 289 290
284 283 282 282 282 281 281 281 281 280 280 279 279 277 278 278 278 278 279 281 281 282 283 284 283 284 283 283 283 284 284 285 287 288 288 288 288 289
284 283 282 283 282 282 282 281 281 281 280 280 279 278 277 278 277 278 279 281 281 281 283 285 285 284 283 283 283 284 283 285 286 287 288 288 288 289
285 283 283 283 281 282 282 281 281 281 280 280 278 278 278 278 277 277 279 280 280 280 281 283 284 284 283 283 283 283 283 285 286 285 288 288 288 289
284 284 283 282 282 281 283 282 281 281 280 279 278 278 277 277 277 277 278 279 279 279 280 282 282 283 284 283 283 283 283 285 286 285 286 288 287 288
283 282 282 282 281 281 283 282 282 280 280 279 278 278 277 278 277 277 277 277 278 279 280 281 281 281 278 281 284 284 283 284 285 286 286 286 287 287
283 283 282 282 282 282 283 283 282 281 280 279 278 277 278 277 277 277 277 277 277 278 278 278 279 280 281 279 282 283 283 284 284 285 286 285 285 286
284 283 282 282 282 282 282 283 282 281 280 279 278 278 278 277 277 276 277 277 277 277 277 277 278 280 282 283 283 283 282 283 284 286 285 285 285 285
284 283 283 283 283 283 284 284 282 282 281 279 279 278 277 277 276 276 277 277 276 276 275 276 279 280 282 284 283 283 282 282 283 284 286 286 286 282
285 284 283 283 284 283 284 284 283 282 281 280 279 278 277 277 276 277 277 277 276 276 275 276 278 279 281 281 283 283 283 282 282 282 282 281 283 284

GFSNE_925_thetae_033.txt.gz
Theta_e
295 295 295 294 295 295 294 294 293 291 287 288 288 287 285 284 283 282 282 282 283 284 283 284 285 285 286 287 287 288 288 289 289 290 290 291 293 294
294 294 293 293 294 295 294 292 291 289 286 287 286 285 283 282 281 281 281 282 281 282 284 284 284 285 285 285 286 287 287 288 288 288 290 292 292 292
294 293 293 293 293 293 291 291 289 287 286 285 283 283 282 281 280 281 281 281 282 282 283 283 283 283 283 284 285 286 286 287 287 288 289 291 292 292
293 292 292 292 292 291 290 289 287 285 283 282 282 282 282 280 280 280 280 281 281 281 282 281 281 281 282 283 286 286 286 286 286 287 288 289 291 291
293 292 292 291 290 289 288 287 285 283 282 282 281 281 280 279 280 280 280 280 280 280 280 280 280 281 281 282 284 284 284 285 285 287 288 289 290 290
292 292 291 290 289 287 286 285 283 283 282 282 281 280 279 279 280 280 279 279 279 279 280 280 280 281 281 281 281 282 283 285 286 286 288 288 287 287
291 290 289 288 287 286 285 284 283 283 282 280 279 279 279 279 278 278 278 278 279 280 280 281 281 281 281 281 281 281 281 284 285 285 287 288 288 287
290 288 287 286 286 285 284 284 283 281 280 279 278 278 278 278 277 278 278 278 279 280 280 280 280 281 281 282 282 282 283 284 284 285 286 287 286 286
289 287 287 286 285 285 284 283 282 281 280 278 277 277 278 278 279 278 279 279 280 280 280 280 280 281 282 282 282 283 284 285 285 285 284 286 285 285
288 287 287 286 285 284 283 282 282 281 280 278 278 278 278 279 279 279 280 280 280 279 280 280 281 281 282 282 282 283 284 284 284 285 285 284 285 285
287 287 286 286 285 284 283 282 281 281 279 278 278 279 279 278 278 278 278 279 279 279 279 280 281 281 282 283 282 283 283 284 284 285 285 285 285 286
287 287 286 285 284 284 282 282 281 280 279 279 279 279 279 279 278 277 278 278 278 279 280 280 281 282 282 282 282 282 283 283 284 285 286 285 286 287
288 287 287 285 284 283 282 282 281 280 280 280 280 280 279 279 277 277 277 277 277 278 279 280 281 281 282 282 282 283 283 283 283 285 286 286 286 286
287 288 287 286 284 283 282 282 281 281 281 281 280 280 280 279 277 277 277 278 279 279 279 280 281 282 283 282 282 283 283 283 283 285 285 287 286 287
289 288 287 286 284 283 282 282 281 281 281 281 281 280 280 278 277 277 277 277 278 279 279 281 281 282 282 282 282 282 282 283 283 285 285 286 287 287
288 288 287 285 284 283 282 282 282 281 282 281 281 280 280 278 277 277 277 277 277 278 279 280 280 280 282 283 282 282 282 282 283 285 285 286 287 287
288 286 283 284 284 283 282 282 282 281 282 282 281 280 279 278 277 277 276 277 276 276 277 278 278 279 281 282 282 282 282 282 283 285 286 286 286 287
286 284 284 284 283 283 282 283 283 282 281 282 281 280 279 278 277 277 276 277 277 276 276 277 277 278 280 282 282 282 282 283 284 285 286 286 285 287
285 284 284 284 284 283 283 283 283 282 281 282 281 280 279 277 276 277 276 276 277 276 276 276 276 277 279 278 280 282 281 282 283 284 284 285 285 285
286 285 284 284 283 283 283 282 282 282 281 282 282 280 279 277 277 277 276 276 276 276 276 275 276 276 277 279 279 280 281 282 282 283 284 284 285 286
286 286 285 284 283 283 283 283 283 282 281 281 282 280 279 277 277 277 276 276 276 276 275 275 276 278 279 279 279 281 281 282 283 283 284 284 284 285
285 285 285 285 284 283 283 283 283 282 281 281 281 281 280 278 278 277 276 276 276 276 275 275 277 279 280 281 282 281 281 281 282 283 284 284 284 282
285 286 286 285 284 283 283 283 283 282 282 282 282 282 280 279 278 277 276 276 276 276 275 275 277 277 279 280 281 281 281 281 281 281 281 281 282 283

GFSNE_925_thetae_039.txt.gz
Theta_e
295 295 297 296 295 295 295 295 295 295 294 292 291 290 289 288 286 285 284 283 281 281 282 282 283 284 285 285 285 286 286 287 287 288 289 290 291 291
294 294 295 295 295 294 294 294 294 294 293 291 290 289 288 286 284 283 283 281 281 281 281 282 283 283 284 284 284 284 285 285 285 286 287 288 289 290
294 294 295 295 294 294 294 294 293 292 291 290 289 287 286 285 284 283 281 281 281 281 281 281 282 282 283 282 282 283 283 283 284 284 286 288 288 289
294 294 294 294 294 294 293 293 292 291 290 289 288 286 284 284 283 282 281 281 281 281 280 281 281 281 282 282 282 283 283 283 283 284 285 286 286 286
294 294 294 294 293 293 292 291 290 289 288 287 286 285 284 283 282 281 281 281 280 280 280 280 281 281 282 282 282 283 283 283 283 283 283 284 285 285
293 293 293 293 293 292 291 290 289 288 287 285 285 284 284 283 281 280 281 281 280 280 281 281 280 281 281 282 282 282 283 283 283 283 283 284 284 284
293 293 293 293 292 291 290 289 288 286 286 285 285 284 283 283 281 280 280 280 280 281 281 282 281 282 282 282 283 283 282 283 283 284 284 284 284 284
293 293 293 292 292 291 289 287 286 286 285 285 284 284 283 282 280 280 280 280 281 281 281 281 281 282 282 282 282 282 282 283 283 284 285 285 285 285
292 292 292 291 291 289 287 286 286 285 284 284 283 283 283 280 280 280 280 280 280 280 280 280 281 282 282 282 283 282 283 283 283 284 284 284 284 284
292 292 291 290 289 288 286 286 286 285 284 283 282 282 281 280 280 280 280 280 280 280 280 280 281 282 282 282 283 282 282 282 283 283 284 284 284 284
291 290 290 290 290 288 286 286 285 284 283 282 282 281 279 279 280 280 280 280 280 280 280 280 281 281 282 283 284 283 283 283 282 282 283 283 284 285
289 290 290 289 289 289 286 286 285 285 283 282 281 280 280 280 280 280 280 280 280 280 280 279 280 280 281 282 283 284 284 284 283 283 283 283 284 284
289 289 289 290 289 288 289 285 285 285 283 282 282 281 281 281 281 280 280 279 279 279 279 279 279 280 280 281 282 283 284 284 284 284 284 284 284 284
289 288 288 288 289 288 286 287 286 284 283 283 282 281 281 281 281 281 280 279 279 278 278 278 279 279 280 281 283 283 283 284 284 284 284 284 285 285
288 287 287 287 288 287 286 286 286 283 283 283 283 282 282 282 281 280 279 279 278 278 278 278 279 279 280 280 282 282 283 284 284 284 285 285 285 285
288 287 286 286 286 286 286 285 285 284 283 284 283 283 282 281 281 280 280 279 278 279 278 278 278 278 279 280 281 282 283 283 283 284 284 285 286 284
287 286 286 286 285 285 285 285 284 284 283 283 283 282 281 281 281 280 280 279 278 279 279 279 278 278 278 279 281 282 283 283 284 284 285 285 286 284
287 286 287 286 286 285 285 284 284 283 283 283 282 282 282 282 281 280 279 279 278 278 278 279 278 279 280 281 280 282 283 282 283 284 285 285 286 284
285 287 287 286 286 285 284 284 285 284 283 282 282 282 282 282 281 281 280 279 279 278 278 278 278 279 281 283 282 280 281 282 283 284 285 285 285 284
286 286 286 286 286 285 284 284 284 284 282 282 282 282 282 282 281 281 280 279 279 278 278 278 278 278 279 281 280 281 280 281 283 283 284 284 285 284
276 279 285 286 285 285 284 284 284 284 283 282 282 281 281 281 281 281 280 278 277 277 278 278 277 276 278 279 280 282 282 281 281 281 282 284 286 285
274 275 275 276 283 284 284 284 284 283 283 281 281 281 281 280 281 280 280 280 278 278 278 277 277 278 280 281 283 283 283 281 281 281 282 282 283 286
271 271 272 273 274 276 278 282 283 283 282 281 280 280 280 280 280 281 280 279 278 277 277 277 277 278 279 280 281 282 282 282 282 282 281 281 281 281

GFSNE_925_thetae_042.txt.gz
Theta_e
300 299 299 298 297 297 297 296 296 298 298 295 294 293 292 291 291 289 287 287 285 284 283 283 283 284 284 285 285 285 286 287 287 288 288 288 289 290
299 298 298 297 297 297 296 295 295 295 297 294 293 292 292 291 289 287 286 286 284 283 283 283 283 283 283 283 284 284 284 284 285 285 286 286 287 288
298 297 297 297 296 296 295 295 294 294 294 294 292 291 291 289 288 287 286 285 284 283 283 283 282 282 282 282 283 283 283 284 284 284 285 285 286 287
297 297 297 296 296 296 295 295 294 294 293 293 292 291 290 289 287 286 285 284 284 284 283 282 281 281 282 282 283 283 283 284 284 284 284 284 285 286
297 297 297 296 296 295 295 294 293 293 292 291 291 290 289 288 287 286 285 284 284 283 282 282 282 282 282 282 282 283 283 284 284 284 284 284 284 284
297 296 296 296 296 295 294 294 293 292 292 291 290 289 288 287 286 286 285 284 284 283 283 283 283 283 283 283 283 283 284 284 284 284 284 284 283 284
296 296 296 296 295 294 293 293 293 292 291 290 290 288 288 287 287 286 284 284 284 284 284 284 284 283 284 284 284 284 284 283 283 284 284 284 284 285
295 295 295 295 294 293 293 292 291 291 291 290 289 288 287 287 286 285 284 284 285 284 283 283 283 283 284 284 284 283 283 284 283 284 284 284 285 285
294 294 294 294 294 293 293 292 290 288 287 288 288 287 287 286 285 283 283 284 284 283 282 283 283 283 284 284 284 284 284 283 283 283 284 284 284 283
292 292 293 293 293 293 292 292 291 290 288 286 286 286 286 285 284 283 283 283 283 283 283 283 283 283 284 284 284 284 284 284 284 284 284 284 283 283
292 291 292 292 292 292 292 291 291 290 289 287 286 285 284 283 282 281 282 283 283 283 283 283 283 283 283 283 285 285 284 284 284 284 284 284 283 283
291 291 291 290 290 291 290 290 291 290 289 288 285 283 283 283 281 281 282 283 283 283 283 282 282 282 283 282 284 284 285 285 285 285 285 285 284 284
291 291 291 291 290 289 289 288 289 290 290 288 287 286 285 284 283 283 283 283 283 283 282 281 281 281 282 282 282 283 284 285 285 285 286 286 285 285
290 290 291 291 290 289 288 287 287 287 288 287 286 286 285 284 284 284 283 283 282 282 281 281 281 281 281 282 282 282 283 284 285 285 286 286 286 286
288 288 287 288 288 288 287 287 287 287 286 286 287 286 286 285 285 284 283 282 282 282 280 280 281 281 281 281 281 282 283 284 284 285 285 285 286 286
285 286 286 287 287 287 288 287 286 286 287 287 286 286 285 285 284 283 283 283 282 282 281 281 281 280 280 281 281 281 282 284 285 285 285 286 286 287
281 283 285 286 287 288 287 286 286 286 287 286 286 286 285 285 284 284 283 283 282 282 282 281 281 281 280 281 281 282 283 285 284 284 285 286 286 285
283 284 285 286 287 288 288 287 286 286 286 287 286 286 286 285 284 284 283 282 283 282 282 281 281 281 282 283 282 283 283 284 283 284 286 287 287 285
281 282 285 287 287 288 288 287 286 286 285 285 285 285 285 285 284 284 283 282 282 282 282 281 281 281 283 284 284 282 282 283 283 284 285 286 287 285
279 279 280 281 282 283 287 287 286 286 285 286 286 285 285 285 285 284 283 283 282 282 281 281 282 281 281 283 282 282 282 282 283 284 285 285 287 285
276 277 277 277 279 279 280 287 286 286 285 285 285 284 284 285 285 284 283 283 282 282 281 281 282 279 279 281 282 283 284 282 281 281 282 285 286 286
274 274 275 275 276 276 278 279 282 285 285 285 285 284 284 284 284 283 283 283 281 281 281 281 280 279 281 282 283 285 284 284 282 282 281 281 282 285
272 272 272 273 274 274 275 275 277 280 284 284 284 284 283 284 284 284 283 282 282 282 280 280 280 280 281 282 282 284 284 284 284 284 283 281 281 281

GFSNE_925_thetae_045.txt.gz
Theta_e
301 302 302 302 301 300 299 299 298 299 299 297 297 296 295 295 294 293 292 291 289 287 286 284 284 284 285 285 285 285 286 286 286 287 287 287 288 289
301 300 302 301 300 299 299 298 297 297 299 296 296 295 294 294 293 292 291 289 288 287 286 284 284 284 284 284 284 284 284 285 285 285 286 286 287 287
300 301 300 299 299 298 298 297 297 296 297 296 295 295 294 293 293 292 291 289 288 287 285 284 284 283 282 283 283 283 283 284 284 285 285 285 286 286
298 300 299 299 299 298 298 297 296 296 295 296 295 294 293 292 292 291 290 289 288 287 285 285 284 283 283 283 283 283 283 284 284 284 285 285 285 285
298 300 300 299 299 298 298 297 296 295 295 295 294 293 293 292 291 290 289 288 287 286 285 285 284 284 284 283 283 283 284 284 284 284 285 285 285 285
298 299 299 298 298 298 298 297 296 296 295 294 294 293 292 291 290 289 289 288 287 286 286 285 285 285 285 285 284 284 284 284 285 285 285 284 284 284
297 298 298 297 298 297 297 297 296 295 295 294 294 293 292 291 290 289 289 288 286 286 286 286 286 285 285 285 285 286 285 284 284 284 284 284 284 284
297 297 297 296 296 296 296 295 295 294 294 294 293 293 292 291 290 289 288 287 286 285 286 285 285 285 285 285 285 285 284 284 284 284 284 284 284 284
296 295 295 294 294 294 294 295 294 294 293 292 292 292 291 290 289 289 288 286 285 285 285 285 285 285 285 285 285 284 284 284 284 284 284 284 283 283
294 294 294 293 293 293 294 294 294 294 293 291 289 289 290 290 289 288 287 285 284 285 285 286 285 285 285 284 284 284 284 285 284 284 285 284 284 284
293 293 293 293 293 292 292 292 293 293 293 292 291 290 289 288 287 286 285 284 285 285 285 285 285 284 284 284 284 284 285 284 285 285 285 285 285 285
292 292 292 292 292 292 291 291 291 292 292 292 291 289 288 287 286 284 284 284 285 285 285 285 284 283 284 283 284 283 284 284 284 285 286 286 286 286
289 289 290 290 291 291 290 290 290 290 290 291 291 290 289 287 286 285 283 283 284 285 285 284 283 283 283 283 283 283 283 283 284 285 286 286 286 286
286 286 287 288 287 286 287 288 288 289 288 288 289 289 289 288 287 286 285 284 285 285 284 284 283 282 283 283 283 283 283 283 284 285 285 285 286 286
282 282 282 282 285 286 287 288 288 288 288 288 289 289 288 288 288 286 285 286 285 284 283 283 283 282 282 283 283 283 283 283 284 285 285 285 286 286
281 281 281 283 283 285 286 287 287 288 287 287 288 288 288 288 287 286 286 285 284 284 284 283 283 282 282 282 282 283 283 283 284 286 285 285 286 286
279 281 285 286 286 286 286 287 288 288 287 287 287 287 288 287 287 286 285 285 285 284 284 284 283 283 283 282 283 283 284 284 285 284 284 286 287 284
280 282 282 283 284 284 285 285 288 288 287 287 287 288 288 288 287 286 286 285 285 284 284 284 283 283 283 283 283 284 284 284 284 284 285 286 287 285
280 280 280 280 280 281 282 283 282 287 286 286 286 287 287 287 287 286 286 285 284 284 284 284 283 283 284 284 284 284 283 283 283 284 285 285 286 285
278 278 278 278 278 278 279 280 281 281 287 287 286 287 286 287 287 286 286 285 285 284 283 284 283 283 283 283 283 282 282 282 283 283 284 284 286 286
276 276 276 276 276 276 276 277 278 279 282 286 286 286 286 286 286 286 286 285 285 284 283 283 282 281 281 280 282 283 284 283 282 282 282 283 285 285
274 274 274 274 274 274 275 275 276 276 278 280 285 285 285 285 286 286 285 285 284 284 283 283 282 282 281 282 283 284 285 284 283 283 282 282 282 283
272 272 272 272 272 273 273 273 274 274 275 277 279 281 285 285 285 286 285 285 284 283 283 283 282 282 281 282 283 283 285 285 285 284 283 282 281 281

GFSNE_925_thetae_051.txt.gz
Theta_e
308 307 303 302 302 303 303 302 301 296 295 299 299 299 297 296 296 295 295 295 294 293 292 291 289 289 289 288 287 286 286 286 286 287 287 287 287 287
306 303 302 302 303 303 302 302 300 299 296 298 298 297 297 296 296 295 295 294 293 293 292 290 289 288 287 287 286 286 285 285 286 286 286 286 287 287
301 301 301 301 302 301 301 300 299 299 296 297 297 297 297 296 296 295 295 293 293 292 292 290 289 288 288 287 286 284 284 285 286 286 286 285 285 286
301 301 302 301 300 300 300 300 300 299 298 297 297 297 297 296 296 295 294 293 293 292 291 290 289 288 287 286 285 285 285 285 285 285 286 286 286 286
300 300 301 300 299 299 299 299 299 299 299 298 297 297 297 296 296 295 294 293 292 292 291 289 289 287 286 286 285 286 285 285 285 285 285 285 285 286
300 299 300 299 299 298 297 298 299 298 298 297 296 296 296 296 295 294 294 293 293 291 290 289 288 287 286 285 286 285 285 285 285 286 286 285 285 285
298 299 298 298 298 297 297 297 297 297 296 295 294 294 293 294 294 294 293 293 291 291 289 288 287 286 285 286 285 285 284 285 284 284 284 284 284 284
298 298 298 297 296 295 294 294 294 294 294 293 293 293 293 293 293 293 292 289 289 290 288 288 287 286 285 285 284 285 285 285 284 283 284 284 284 284
297 297 295 295 294 292 293 292 292 292 292 291 292 292 292 293 293 292 291 291 290 290 289 287 286 286 285 284 285 285 284 284 283 284 284 284 284 284
294 294 292 292 292 290 290 289 289 289 289 289 290 290 290 290 291 291 291 291 290 288 287 285 286 286 286 284 285 284 284 283 283 283 283 282 283 283
292 292 291 289 287 287 286 284 282 282 282 285 286 286 286 287 289 289 289 289 288 287 287 285 285 286 285 285 284 284 283 283 282 282 282 282 283 284
289 287 285 283 282 281 280 281 282 284 283 282 283 285 285 286 287 287 289 288 287 285 287 285 285 284 284 284 284 283 283 282 282 282 282 283 283 284
284 282 280 280 280 280 283 284 284 285 284 284 284 285 285 285 286 288 289 288 288 286 287 285 285 284 284 284 283 283 282 282 282 281 282 282 284 284
279 279 279 278 280 282 282 283 283 284 283 283 284 285 285 285 286 287 288 288 288 288 287 285 284 284 283 283 282 282 282 282 282 282 283 283 284 283
278 277 278 280 282 281 280 279 280 280 282 281 282 283 285 286 286 287 287 287 288 287 286 285 284 284 284 283 283 282 282 282 282 282 283 284 283 284
277 278 279 280 280 279 278 278 278 278 278 278 279 279 282 286 286 288 287 286 286 286 285 284 284 284 284 283 283 283 282 282 282 282 283 283 283 285
278 279 279 278 278 277 277 277 276 276 277 276 276 278 279 286 287 287 287 286 285 286 285 285 285 284 284 284 283 283 282 282 283 284 282 282 283 284
278 278 277 277 276 276 276 275 275 275 275 275 275 276 278 281 287 287 287 286 285 284 285 285 284 284 284 284 283 283 283 283 284 283 282 282 282 284
277 276 275 274 274 274 274 273 273 273 274 273 274 275 276 277 283 286 287 286 285 285 285 285 284 284 282 280 283 282 283 283 282 281 282 282 282 283
275 275 274 273 273 272 272 272 272 272 272 272 272 274 274 276 276 285 286 286 285 285 285 285 284 283 282 280 281 283 282 281 283 282 282 282 283 284
274 273 272 272 272 271 271 271 270 270 271 270 271 272 273 273 274 275 284 286 286 285 285 284 284 283 283 282 279 281 281 283 283 283 282 282 281 283
272 271 271 270 270 269 269 269 268 268 269 269 270 270 271 272 273 274 276 282 284 285 285 284 284 283 282 282 281 281 281 283 283 283 282 282 281 277
270 270 269 269 268 268 268 267 267 268 268 268 268 268 269 270 271 272 273 275 277 283 284 284 283 282 282 282 282 281 281 282 284 283 283 284 282 281

GFSNE_925_thetae_054.txt.gz
Theta_e
312 310 310 308 305 303 303 302 301 300 299 300 299 299 299 299 298 296 296 297 296 296 295 294 293 292 291 290 291 289 288 287 287 287 287 287 288 288
308 308 306 303 302 302 303 302 302 300 298 298 298 298 298 298 297 297 296 295 295 295 294 294 293 292 290 289 290 289 288 287 287 287 287 287 287 287
307 306 302 302 302 302 302 301 301 300 297 297 298 298 298 297 297 297 296 296 295 295 294 293 293 291 290 289 288 287 286 286 286 286 286 286 287 287
304 303 302 301 302 301 300 300 299 299 299 297 298 298 298 298 298 297 297 296 295 295 294 293 292 291 290 289 288 287 286 285 285 285 285 286 287 287
303 302 301 301 300 299 298 298 298 297 298 298 297 297 297 297 297 297 296 296 296 295 294 292 292 291 290 288 288 286 285 285 285 285 284 285 286 286
301 301 300 300 300 299 298 297 296 297 297 297 295 295 295 295 295 294 294 294 294 294 294 293 292 292 290 288 286 286 286 285 285 285 285 285 285 285
300 300 299 299 298 298 296 296 294 294 293 293 293 292 292 292 292 293 292 293 293 293 292 291 291 289 289 286 286 286 285 285 284 285 284 284 283 284
300 298 299 298 296 295 294 292 291 290 290 290 290 290 290 291 291 291 291 290 290 291 290 290 289 287 288 288 286 285 284 284 285 284 283 283 284 284
298 298 297 294 294 292 291 291 291 290 287 286 287 287 288 289 289 289 289 289 289 290 290 289 290 289 289 286 285 285 285 285 284 283 283 283 283 283
296 294 293 292 290 289 288 285 282 281 281 283 283 282 284 285 285 286 285 287 288 289 289 288 288 288 287 285 285 284 285 284 283 283 283 282 282 282
292 291 290 288 286 283 281 280 282 284 284 284 285 285 285 285 284 284 285 286 286 288 288 288 287 286 286 285 286 285 284 283 283 283 282 282 281 282
290 288 286 282 280 279 281 283 283 283 283 283 283 283 284 284 284 285 285 285 286 286 288 285 285 285 284 285 285 284 283 283 282 281 281 281 282 282
285 282 280 279 278 281 282 281 281 280 280 281 281 281 282 283 284 284 285 286 286 288 288 287 285 285 284 283 283 283 283 283 282 281 282 282 283 283
279 278 278 279 281 282 280 279 279 278 277 279 278 279 280 280 280 283 285 286 286 286 287 287 285 285 284 282 283 283 283 283 282 282 282 282 283 284
278 278 279 280 281 279 278 278 277 276 276 277 277 277 276 278 278 282 285 286 285 286 286 286 286 285 284 283 284 283 283 283 282 282 282 282 283 282
278 278 279 279 278 277 277 276 275 275 275 275 275 275 275 276 278 280 286 286 287 286 286 285 285 284 284 284 284 283 283 282 283 282 283 283 282 283
278 278 277 276 276 275 275 274 273 273 273 273 273 273 274 275 276 278 281 286 286 286 285 285 285 284 284 284 284 283 283 283 282 282 283 282 282 282
277 276 275 274 274 274 273 273 272 272 272 272 272 272 273 274 274 276 277 285 285 286 285 284 285 284 284 284 284 283 283 283 282 283 283 282 282 282
275 275 274 273 272 272 272 271 271 270 270 270 270 270 271 272 273 274 276 278 286 286 285 285 284 284 280 279 283 283 283 282 283 282 281 281 282 282
275 274 273 272 272 271 270 270 270 269 268 269 269 269 270 270 271 272 274 275 280 285 285 284 284 284 282 280 282 283 283 282 282 282 283 282 282 284
273 272 271 271 270 269 269 269 268 268 268 268 268 268 268 268 269 271 272 273 274 282 285 284 285 285 284 283 280 281 281 281 282 283 283 282 281 282
271 271 270 269 269 268 268 267 267 267 267 267 267 267 267 267 268 270 270 271 272 276 277 283 284 284 283 281 281 281 281 281 282 284 283 282 282 277
270 270 269 268 268 267 267 266 266 266 266 266 266 267 267 266 267 267 269 270 272 273 275 280 283 283 281 281 282 281 281 281 281 283 283 283 283 283

GFSNE_925_thetae_057.txt.gz
Theta_e
317 313 313 312 309 308 305 304 302 300 300 302 302 302 299 299 298 298 298 297 296 296 297 297 297 296 295 294 294 293 293 292 290 289 289 288 288 288
315 312 310 308 306 304 303 302 302 302 299 300 299 300 299 299 298 297 297 296 296 295 295 295 296 295 294 293 293 292 292 291 290 289 288 288 288 288
312 309 308 307 305 303 302 302 301 299 297 298 298 299 298 298 298 298 298 297 297 297 296 295 294 294 294 293 292 291 290 290 290 289 288 288 287 287
310 307 306 304 302 302 301 299 299 299 298 297 297 298 297 297 296 296 296 296 296 295 295 295 296 295 294 294 292 291 290 289 287 287 287 287 287 287
309 306 305 303 302 301 299 298 297 297 296 296 295 296 295 294 294 293 293 293 293 293 293 294 294 294 294 293 293 292 290 289 287 286 285 285 285 286
306 306 303 302 301 300 299 298 296 296 295 293 293 292 292 292 291 291 291 291 291 291 291 292 292 293 292 292 293 292 291 290 287 286 286 285 284 285
304 302 301 300 300 298 298 296 295 293 291 290 290 289 289 290 289 290 290 290 290 290 290 291 291 291 291 291 291 291 290 287 287 286 285 284 285 284
301 300 299 298 298 297 295 294 292 290 289 287 287 286 286 285 286 287 287 286 287 287 289 289 290 290 290 290 290 289 288 287 287 285 284 285 284 283
300 299 297 296 295 293 293 291 290 287 284 281 281 282 283 283 283 285 284 284 284 284 284 286 287 288 289 289 288 287 287 287 284 284 285 284 283 283
298 297 296 293 293 292 290 288 284 281 282 284 284 284 284 284 284 284 284 284 284 284 285 286 286 287 288 289 289 288 286 285 285 285 284 283 283 282
295 293 291 290 288 286 283 281 281 282 282 282 282 282 282 282 283 283 284 284 284 284 285 285 286 287 287 288 287 286 285 285 285 284 283 282 282 282
290 288 288 286 282 280 280 282 282 281 280 279 279 280 280 280 281 282 283 283 284 285 285 285 286 286 285 286 287 286 285 284 283 283 282 281 281 281
287 285 282 280 279 280 282 281 280 279 277 277 277 277 278 278 278 279 279 280 283 284 285 286 286 285 285 284 283 284 283 283 283 282 281 281 282 282
283 280 279 279 280 281 280 279 278 277 276 275 276 276 276 276 276 277 278 279 281 283 285 285 285 285 284 282 283 283 283 283 283 282 282 282 282 282
279 278 279 280 280 279 278 277 276 275 274 274 275 274 274 274 275 276 277 278 281 285 285 285 285 285 285 284 283 283 283 283 283 282 282 282 283 283
278 278 279 279 278 277 276 275 274 274 273 273 273 273 272 273 274 274 275 276 278 284 286 285 285 284 284 283 283 284 284 283 283 283 282 282 283 282
278 278 278 277 276 275 275 274 273 272 272 272 272 271 271 271 273 273 273 275 276 281 285 285 285 284 284 284 283 284 284 283 283 283 282 283 283 282
278 276 275 274 274 274 273 272 271 271 270 270 270 270 269 270 271 271 272 273 275 276 283 285 284 283 283 283 284 284 284 283 283 283 282 283 282 281
276 275 273 273 273 272 272 271 271 270 269 268 269 268 268 269 268 269 271 272 273 275 275 284 285 284 282 280 283 283 283 283 283 282 282 282 282 282
275 274 273 272 272 271 270 269 269 268 268 267 268 267 267 267 267 267 269 271 271 273 274 282 284 284 283 281 282 283 283 283 282 282 282 282 282 283
273 273 272 271 270 269 268 268 268 267 267 267 267 266 266 266 266 266 267 268 269 272 274 276 278 283 284 284 281 282 282 282 281 281 282 282 282 282
272 271 270 269 268 268 267 267 266 266 266 266 266 266 266 266 266 266 266 266 269 271 273 273 276 281 283 283 281 282 281 281 281 282 283 282 282 277
270 269 269 268 267 267 266 266 265 265 265 265 265 266 266 266 266 266 266 266 267 270 271 273 274 279 283 282 282 281 281 281 281 281 283 283 283 282

GFSNE_925_thetae_060.txt.gz
Theta_e
322 322 319 315 311 313 310 309 307 303 301 302 303 303 302 302 301 298 298 298 297 297 296 296 296 296 297 297 297 297 296 297 296 295 294 292 291 290
321 320 317 314 312 310 308 306 305 303 302 302 301 301 300 300 299 299 298 297 297 297 297 297 297 296 295 296 296 296 296 295 296 295 293 292 291 290
319 317 314 312 310 307 306 305 303 302 299 299 299 299 298 298 298 297 296 296 295 295 295 295 294 295 294 295 295 294 294 295 294 294 293 292 291 290
318 314 312 310 308 306 304 302 301 300 299 297 297 296 296 297 295 294 294 293 293 293 292 292 292 293 293 293 294 293 294 294 294 294 292 291 290 289
317 313 310 307 305 303 302 300 298 297 296 295 294 294 294 293 292 292 291 291 291 290 290 291 291 291 291 291 291 292 292 293 293 293 292 291 288 287
313 310 308 307 305 302 300 298 297 296 295 294 292 291 291 291 290 288 287 285 284 283 283 284 285 286 287 289 290 290 291 291 292 293 291 290 287 287
309 307 306 305 303 301 299 298 297 295 293 291 290 289 288 287 284 283 284 284 284 283 284 284 286 285 284 285 288 290 290 290 291 292 290 287 288 287
306 304 302 301 300 299 298 296 295 293 291 288 287 285 282 282 283 284 284 284 284 284 284 284 284 284 284 285 285 287 287 289 289 290 287 287 287 287
304 302 299 298 298 296 295 293 291 290 287 283 282 282 283 283 283 283 283 283 283 283 284 283 284 284 284 285 285 286 287 288 288 288 287 287 286 284
301 300 298 295 293 292 291 290 288 284 282 282 283 283 283 283 283 282 283 283 283 283 283 283 284 284 285 285 286 287 287 287 287 287 285 285 285 284
297 296 295 291 289 290 288 286 282 282 282 281 280 279 281 280 280 281 282 282 282 282 283 284 284 285 285 285 286 287 287 286 285 285 285 285 284 283
291 289 289 288 286 285 282 281 281 281 280 279 278 278 278 278 278 278 280 280 280 281 283 284 284 284 285 286 286 287 286 286 285 285 284 283 282 281
288 285 284 282 280 280 281 281 280 279 278 277 276 276 276 276 276 276 277 277 278 279 280 281 283 285 284 285 285 284 285 286 284 284 283 282 281 281
286 283 281 279 280 281 280 279 278 277 276 275 275 275 275 275 274 274 275 276 276 277 279 279 282 285 285 285 283 284 284 283 283 283 282 282 281 282
282 279 279 280 280 279 278 278 277 275 274 274 274 274 273 273 273 274 274 274 275 277 279 282 284 285 285 284 283 283 283 283 283 283 282 282 282 282
278 278 279 279 278 277 277 276 275 274 273 273 272 272 272 271 272 273 272 273 274 276 278 281 284 285 284 283 283 283 283 283 283 283 282 282 282 282
278 278 278 277 276 276 275 274 273 272 272 271 271 271 271 270 270 271 270 272 273 274 275 277 280 284 284 284 283 283 283 283 284 283 282 282 282 282
278 277 276 275 274 274 273 273 272 271 271 270 269 270 269 269 269 269 269 270 271 272 273 274 276 281 284 283 283 283 283 283 284 283 282 281 282 282
276 275 274 274 273 273 272 272 271 270 269 268 268 268 267 267 267 267 268 269 269 270 271 272 275 278 284 283 283 284 283 284 284 283 282 282 282 282
275 275 274 273 272 272 271 270 269 269 268 267 267 267 266 266 266 266 266 267 268 268 270 273 275 276 276 282 283 283 283 283 283 282 282 282 281 282
274 274 273 272 271 270 269 268 268 267 267 266 266 266 266 266 265 265 265 266 266 268 270 271 272 274 275 278 282 282 283 283 282 282 282 281 282 281
272 272 271 270 269 268 268 267 266 266 266 265 265 265 265 265 265 265 265 265 266 267 268 270 271 273 275 280 283 281 283 282 281 281 281 281 282 281
270 270 269 268 267 266 266 265 265 264 264 264 264 264 265 265 265 264 264 264 265 266 267 269 270 272 274 276 282 281 281 281 280 281 281 283 283 282

GFSNE_925_thetae_063.txt.gz
Theta_e
321 320 319 318 316 317 316 313 312 311 308 306 306 303 302 302 302 301 298 299 299 298 297 296 296 297 297 297 296 296 297 297 298 298 298 298 298 296
321 321 319 318 318 319 314 311 310 310 312 306 303 302 302 301 299 299 298 298 298 297 297 297 296 296 296 296 296 296 296 295 295 296 296 297 297 297
321 320 319 318 317 314 310 308 308 306 306 301 302 301 301 299 298 298 297 296 296 295 294 293 293 293 293 293 293 293 293 293 294 294 295 296 296 296
320 319 318 316 313 310 309 307 305 304 303 301 300 298 298 298 297 296 294 293 293 292 291 290 290 289 289 289 290 290 291 291 291 292 292 293 295 295
320 320 317 313 308 308 307 305 303 301 300 298 299 297 295 295 294 293 292 291 289 287 285 285 285 284 284 284 284 284 286 288 289 290 291 291 292 293
319 319 314 311 309 307 304 303 300 298 297 296 295 294 293 293 291 290 288 287 287 286 286 285 285 285 284 285 285 285 284 283 287 289 290 290 291 292
316 313 312 310 309 307 304 301 298 297 295 292 291 291 291 291 289 286 286 286 287 286 286 286 286 286 286 286 286 286 285 285 285 287 287 289 290 291
311 309 307 305 305 304 302 299 298 296 293 293 290 289 289 286 285 286 286 286 287 286 286 286 286 286 286 286 286 285 285 286 287 288 289 289 290 289
308 305 303 302 301 300 298 297 294 293 293 291 287 285 285 285 285 285 285 285 285 285 284 285 285 285 286 286 286 285 286 286 287 287 288 288 288 287
304 303 302 299 299 298 296 292 291 290 286 284 283 284 284 284 284 284 283 283 283 284 284 285 285 285 286 286 286 286 286 287 287 287 287 287 287 286
300 300 299 296 293 293 291 290 286 283 282 282 281 280 280 280 280 281 282 283 283 283 283 283 284 285 285 285 287 286 285 286 287 286 287 286 286 285
293 292 293 293 291 292 290 286 283 282 281 280 279 278 278 278 277 278 280 281 282 282 284 283 283 283 284 285 286 286 286 286 286 285 285 285 285 285
290 288 287 288 286 283 282 282 282 280 279 278 278 278 278 277 277 277 277 278 279 280 280 280 281 281 283 285 285 286 286 286 286 286 285 284 283 283
288 285 282 281 281 281 281 280 279 278 277 277 277 277 277 276 276 275 275 276 277 277 278 278 279 280 281 284 286 286 286 286 286 286 285 284 283 282
284 282 281 282 280 280 279 278 277 277 276 276 276 276 275 274 274 274 275 275 275 276 276 277 279 280 282 283 286 286 285 286 285 285 285 284 284 283
280 281 281 280 279 278 277 277 276 275 275 275 274 274 274 273 273 273 274 274 274 275 277 277 278 278 280 284 286 286 285 285 285 284 285 284 283 283
279 279 279 278 278 278 277 276 275 274 274 273 273 273 273 272 272 272 272 272 273 274 275 276 277 277 279 281 286 285 285 285 285 285 284 284 284 284
279 278 278 278 278 277 276 275 274 273 273 272 271 271 271 271 271 271 271 271 272 273 274 274 275 277 280 283 284 285 285 285 285 285 285 284 284 284
278 277 277 276 276 275 275 274 273 272 270 270 270 270 270 270 269 270 270 270 271 272 272 273 275 277 280 281 284 284 285 285 285 285 285 284 284 283
277 277 276 275 274 273 273 272 271 271 270 269 269 268 268 268 268 269 269 269 270 270 271 273 274 276 276 278 278 279 283 285 285 285 285 284 283 282
276 275 274 273 273 272 271 270 269 269 268 267 267 267 267 267 267 268 268 268 268 269 271 272 273 272 273 276 278 280 282 284 284 284 284 284 283 283
274 273 272 271 270 270 269 268 268 268 267 267 267 267 266 266 266 267 267 268 268 269 270 270 271 273 274 276 278 280 284 283 283 283 282 282 283 284
270 270 269 268 268 267 267 267 266 266 265 265 265 265 265 265 266 266 267 267 268 268 269 270 271 272 274 275 276 278 283 282 282 282 282 281 281 282

GFSNE_925_thetae_066.txt.gz
Theta_e
325 325 322 320 320 319 319 318 319 319 317 316 313 308 306 305 304 303 304 302 301 299 298 299 299 297 297 297 297 297 297 297 297 299 299 300 300 300
324 324 324 322 322 320 319 317 316 316 317 315 311 310 307 302 303 302 302 300 299 299 299 298 298 297 297 296 295 295 295 294 294 295 296 297 298 299
323 321 321 320 320 318 316 315 314 315 315 313 309 305 302 301 301 300 300 300 301 299 297 296 295 294 293 292 292 292 291 291 291 291 292 294 295 296
320 319 320 320 317 317 316 314 312 311 313 313 306 301 301 302 302 301 300 299 297 296 294 292 290 288 286 285 285 285 285 284 284 284 286 289 291 293
317 317 318 319 318 314 313 311 309 309 307 305 306 301 301 299 298 297 297 297 295 293 290 287 286 286 286 285 285 285 285 285 285 285 284 285 288 291
318 318 320 318 316 314 311 308 305 305 304 302 300 298 297 296 295 295 295 294 292 290 289 288 288 287 287 287 286 286 286 286 285 284 285 285 286 288
317 319 318 318 317 313 311 305 304 301 300 298 296 293 294 294 294 294 292 290 290 290 290 290 289 289 289 289 288 288 287 286 285 286 286 286 287 288
317 316 316 314 311 310 308 307 305 302 296 294 293 293 293 294 293 291 290 290 290 290 290 289 288 288 289 289 288 287 286 286 285 286 287 287 288 289
316 313 311 309 308 305 303 302 301 299 299 296 294 293 293 290 290 289 288 289 289 288 287 287 288 288 288 288 287 287 286 286 286 286 287 287 288 288
313 310 308 306 304 302 299 297 295 293 293 292 289 287 287 287 287 287 287 286 286 286 286 287 287 287 287 287 287 287 286 287 286 286 286 287 288 288
305 303 302 299 295 296 294 290 287 287 287 287 286 284 284 283 282 283 284 285 286 286 286 285 286 287 286 285 286 287 287 287 287 286 286 287 288 287
295 294 295 296 294 294 293 289 285 283 283 281 281 280 280 281 279 279 282 283 284 285 286 285 285 284 285 286 286 286 287 288 287 287 286 285 286 287
289 289 290 290 290 290 288 286 285 282 281 281 281 281 281 281 280 280 280 280 281 283 283 282 282 282 282 283 284 285 286 288 288 287 287 286 286 285
287 287 286 286 284 283 283 282 281 280 281 281 280 280 280 280 280 279 278 278 279 279 279 279 279 280 281 282 283 283 285 287 288 287 288 287 285 283
285 284 283 282 281 280 280 280 279 280 280 280 280 280 279 278 277 278 277 277 277 278 277 277 278 279 280 282 282 282 285 287 287 287 287 287 287 286
282 282 281 281 281 279 279 279 279 278 278 279 278 278 277 277 277 277 276 276 276 277 277 277 278 278 279 280 281 282 284 287 287 287 287 287 286 286
281 281 281 281 281 281 280 279 278 277 278 277 277 277 277 277 277 275 275 275 275 276 277 277 277 278 278 279 280 281 283 286 287 287 287 287 286 286
282 282 283 282 282 281 280 279 278 276 276 275 275 275 275 275 275 274 274 275 275 275 276 276 276 277 278 280 281 282 284 285 287 286 286 287 286 286
282 282 281 281 280 279 278 277 277 275 273 274 274 274 274 273 273 273 273 274 274 274 275 275 275 276 280 281 280 281 283 285 286 286 286 286 286 286
280 280 279 278 277 277 276 275 275 274 274 273 272 272 272 272 272 272 273 273 273 273 273 274 275 276 277 278 277 277 278 279 281 287 287 286 286 284
278 277 277 276 275 274 274 273 272 272 271 270 271 271 271 271 271 271 271 271 271 272 273 274 274 274 273 275 277 278 280 282 282 282 286 287 286 285
276 275 274 273 272 272 272 271 271 271 270 270 270 269 269 269 269 270 270 270 271 271 271 272 272 273 274 275 277 278 279 280 283 284 284 285 285 285
272 272 271 271 270 270 269 269 269 269 268 268 268 268 268 268 268 268 269 269 270 270 270 271 272 273 274 275 276 277 278 279 283 284 284 283 283 283

GFSNE_925_thetae_069.txt.gz
Theta_e
321 323 323 324 325 325 323 320 319 321 320 319 318 316 315 315 311 310 306 306 304 304 304 304 302 299 299 299 298 297 297 297 297 296 296 298 299 300
323 324 324 324 325 324 322 320 321 320 319 320 319 317 313 311 308 306 306 306 305 304 303 301 300 299 299 298 298 297 296 294 294 293 293 293 295 296
323 323 323 324 324 324 323 322 321 319 318 318 316 315 312 310 307 305 305 304 303 303 301 300 299 298 297 296 295 293 291 290 288 287 286 286 290 291
323 323 323 323 323 322 321 321 319 318 317 316 315 311 309 307 304 302 303 304 304 303 301 299 297 295 293 291 289 286 286 285 285 285 285 285 285 288
322 323 323 322 320 319 319 317 317 316 315 315 312 306 305 304 303 304 303 302 301 300 297 295 294 291 288 287 286 286 286 285 285 285 285 285 285 285
322 322 322 320 318 318 317 316 315 313 312 310 307 304 303 301 301 300 298 298 299 298 294 291 290 289 289 288 288 288 288 288 287 287 286 285 286 287
322 321 319 318 317 317 317 315 312 310 307 305 303 299 298 297 297 296 296 296 296 294 292 292 292 291 291 290 290 290 290 289 288 287 286 285 286 286
322 321 319 319 318 317 317 317 314 309 305 303 301 300 296 295 295 296 294 292 294 292 291 292 291 290 290 290 290 290 289 288 287 287 286 286 286 287
322 321 319 318 317 316 314 310 306 305 304 301 297 295 294 295 294 293 291 291 291 291 291 290 289 289 289 290 290 289 288 287 287 286 286 286 286 286
320 320 318 317 313 310 307 302 298 296 294 294 294 291 290 290 290 290 289 289 289 288 288 288 289 289 289 289 288 288 287 286 286 286 287 287 286 286
316 313 311 308 305 303 301 293 292 291 292 292 293 291 290 288 288 287 287 286 288 288 288 288 288 287 288 288 287 286 287 287 287 287 287 287 287 286
302 300 299 300 295 294 296 293 288 287 288 288 285 283 282 281 281 281 284 285 286 286 287 287 287 287 286 286 286 285 285 285 287 288 288 287 287 286
291 289 289 290 290 291 292 290 287 285 283 283 282 282 282 283 283 282 282 282 283 284 284 283 284 284 284 284 283 284 284 283 284 286 288 288 287 286
287 286 285 288 289 289 288 286 284 283 282 282 282 282 282 282 282 282 281 280 280 281 281 281 280 281 281 282 282 282 283 284 284 286 288 288 288 286
285 284 283 284 284 283 282 281 281 282 282 283 283 283 283 282 280 280 280 280 280 280 280 279 279 279 279 280 281 282 282 283 283 284 287 288 288 286
282 282 282 281 281 281 281 281 280 280 281 281 281 281 280 280 280 280 279 279 279 279 279 279 279 279 279 279 280 281 282 283 283 284 285 288 288 288
282 282 282 282 282 282 281 281 280 280 280 280 279 279 279 279 279 279 278 278 278 278 279 278 278 278 278 278 279 280 281 282 283 284 285 287 288 287
284 285 285 285 284 283 282 281 280 279 278 277 277 277 277 277 277 277 276 276 277 277 277 277 277 278 278 278 279 280 281 283 283 282 284 287 287 287
284 283 283 282 281 281 280 279 278 277 275 276 276 276 275 275 275 275 275 276 276 276 276 276 276 276 279 280 279 279 279 279 278 280 282 287 287 287
281 281 280 279 278 278 277 277 276 275 275 274 274 273 273 273 274 274 274 274 274 274 274 274 275 276 277 277 276 276 276 276 278 280 282 283 287 286
279 278 277 277 276 276 275 274 274 274 273 273 273 273 272 272 272 272 272 272 272 272 273 274 274 274 274 274 276 277 278 278 278 280 281 282 286 286
276 275 274 274 273 273 273 273 272 272 272 271 271 270 270 270 270 270 271 271 271 271 272 272 272 272 273 274 275 276 277 278 278 279 280 281 284 287
273 273 273 272 271 271 271 270 270 270 269 269 269 269 269 269 269 269 270 270 270 270 270 271 271 272 272 273 274 275 276 277 278 280 281 284 283 283

GFSNE_925_thetae_072.txt.gz
Theta_e
318 318 319 320 320 322 323 323 322 321 319 319 320 319 317 316 317 317 314 311 311 309 308 306 304 303 303 302 300 299 298 298 298 298 297 297 297 298
319 320 319 319 320 322 322 323 323 321 321 320 320 319 319 317 316 315 314 312 311 308 306 304 303 303 302 300 299 299 298 298 297 295 294 292 292 294
321 321 322 322 323 323 323 323 323 321 321 321 320 320 319 318 315 315 313 310 309 306 305 304 304 302 301 300 299 298 297 295 293 291 289 286 286 288
320 321 322 322 323 324 324 324 323 322 321 320 319 318 318 318 315 311 309 307 306 306 305 304 302 301 300 298 297 296 293 291 288 286 286 286 285 285
321 321 321 322 323 323 324 323 321 321 319 319 319 316 316 316 312 310 307 306 305 304 304 303 302 300 297 295 294 291 289 287 286 286 286 286 286 285
321 322 322 322 322 323 323 321 320 318 318 317 317 310 310 308 308 305 303 304 304 302 301 300 298 295 291 290 290 289 288 288 289 289 288 288 287 286
322 322 322 322 322 322 322 320 318 317 316 315 314 306 305 303 304 304 303 300 301 300 298 295 292 291 291 291 291 290 290 291 290 289 288 287 287 286
322 322 322 322 322 322 322 321 319 317 315 314 312 307 306 302 300 299 297 296 292 293 292 293 293 292 291 291 290 290 290 290 289 288 287 287 287 286
323 323 322 322 322 321 320 319 318 314 314 311 307 303 298 296 296 295 293 292 291 292 290 290 291 291 290 289 289 289 290 289 288 288 287 287 286 287
321 322 322 322 321 320 318 312 303 298 299 304 302 297 296 295 296 293 292 290 289 290 289 287 289 287 288 289 289 289 289 288 287 286 286 286 287 287
321 321 320 319 319 317 311 298 292 291 291 293 293 292 292 291 290 289 289 288 287 287 287 288 288 288 287 287 288 288 287 287 286 286 286 287 287 287
310 308 306 305 302 301 301 293 288 286 288 288 288 288 287 285 285 285 285 285 286 286 285 286 286 285 285 286 286 286 285 285 284 284 284 284 285 287
296 293 292 294 293 294 294 290 287 285 285 285 284 283 285 286 286 285 283 283 283 284 284 283 282 283 283 283 283 283 283 283 282 284 284 284 285 288
288 287 287 288 290 290 288 286 285 285 284 283 283 283 282 282 282 282 282 281 281 281 281 281 280 280 280 280 280 280 281 281 282 283 282 282 283 287
286 284 284 284 283 283 283 283 283 283 283 283 283 283 282 281 281 281 281 280 280 280 280 280 280 279 279 279 279 280 280 280 281 281 283 282 283 285
282 283 283 283 282 282 282 282 282 282 282 281 281 281 280 280 280 280 280 279 279 278 278 279 279 279 278 279 279 279 279 280 280 280 280 281 282 284
282 282 282 282 282 281 281 280 280 280 279 279 279 278 278 278 278 278 278 278 277 277 277 278 278 278 278 278 278 278 278 279 279 280 282 281 282 285
285 285 284 284 283 282 281 280 279 277 277 277 277 277 276 276 276 275 276 276 277 276 276 277 277 277 277 277 277 278 278 279 278 277 278 279 280 280
282 281 281 280 279 279 278 278 277 276 276 275 275 274 274 274 274 274 274 275 275 275 275 275 274 275 274 274 276 276 275 275 275 276 277 279 280 281
279 279 278 278 277 276 276 275 275 274 273 273 273 273 273 273 272 272 272 272 272 272 272 273 273 274 274 273 274 274 274 275 276 276 277 279 279 281
276 275 275 275 275 274 274 273 273 273 273 272 272 271 271 270 271 271 271 271 271 271 272 272 272 272 272 272 272 273 274 275 275 277 278 278 278 279
275 274 273 273 272 272 272 271 271 270 270 270 269 269 269 269 269 269 269 270 270 270 271 270 270 271 272 272 273 273 273 274 274 275 277 278 279 280
271 272 271 271 270 269 269 269 269 269 268 268 268 268 267 268 268 268 269 269 269 269 269 270 270 270 270 271 271 272 273 273 274 275 276 278 280 282

GFSNE_925_thetae_078.txt.gz
Theta_e
321 321 320 318 318 317 320 320 319 319 319 319 319 318 318 319 319 319 319 319 319 318 318 316 314 312 312 310 310 312 313 312 310 306 305 306 305 304
321 321 318 317 317 318 319 319 319 319 319 318 318 318 318 318 319 319 319 319 318 319 319 318 318 317 314 310 311 312 313 310 306 304 303 302 301 301
320 320 318 317 318 319 319 318 318 318 318 318 318 318 319 319 319 319 319 319 319 320 319 318 318 318 317 314 311 310 308 305 303 301 300 299 299 299
321 320 320 320 319 319 318 318 318 318 318 318 318 318 318 319 319 320 320 319 319 320 319 318 318 317 316 312 310 308 304 302 299 298 298 297 296 294
319 318 318 318 318 318 318 318 318 318 318 318 319 319 319 319 319 319 319 319 319 319 318 317 317 316 314 312 309 303 300 298 298 297 294 292 292 288
317 317 317 317 318 318 318 318 318 319 319 319 319 319 320 320 319 318 316 316 316 315 316 315 314 311 309 308 303 299 297 296 293 291 291 288 287 287
317 317 317 318 318 318 318 318 318 318 318 319 320 320 320 315 316 317 314 315 312 311 308 306 305 304 304 300 298 297 294 294 294 292 289 289 289 289
317 317 317 318 318 318 318 318 318 318 318 319 319 320 320 320 316 314 315 305 302 301 302 299 299 298 298 297 294 293 293 292 290 290 289 289 289 289
318 318 317 317 317 317 318 318 318 318 318 319 319 320 320 320 318 310 308 302 298 296 297 292 293 293 292 292 292 292 290 290 290 289 288 288 288 288
319 319 318 318 318 318 318 317 318 317 315 315 314 312 311 308 308 306 301 296 292 292 293 290 290 291 291 291 291 290 289 289 288 287 288 287 287 287
320 319 319 319 319 319 318 317 311 304 299 299 298 296 295 295 296 298 293 292 288 287 288 288 288 288 288 289 289 288 288 286 285 285 284 285 284 284
317 318 317 316 317 317 318 313 298 290 289 288 290 291 292 291 292 292 291 288 287 286 284 285 285 285 285 284 286 285 284 283 283 284 284 282 282 282
305 299 298 299 302 302 301 296 288 286 285 285 285 284 284 285 285 285 286 286 284 281 281 282 281 282 282 282 282 282 282 282 281 281 280 279 279 281
287 286 286 285 286 288 287 285 285 285 285 284 283 282 282 282 282 282 282 282 282 281 281 281 281 280 280 280 280 280 279 279 279 278 279 279 278 278
284 283 283 284 285 284 284 284 285 284 283 281 281 281 281 281 281 280 280 280 280 279 278 277 278 278 278 279 279 279 279 278 278 278 278 278 278 278
284 284 283 283 283 283 283 282 282 281 280 279 279 279 279 278 278 278 277 277 277 277 277 276 276 276 276 277 277 277 277 277 277 277 277 277 277 277
282 282 281 280 279 279 279 279 279 279 278 278 277 277 276 276 275 275 275 275 276 276 275 275 274 274 274 274 274 275 275 275 274 274 274 274 274 274
280 280 279 278 278 277 277 276 276 276 275 275 274 274 274 274 274 273 272 273 273 273 272 272 272 273 273 273 273 272 272 272 272 272 273 274 274 274
277 277 276 276 276 275 275 274 274 274 274 273 273 272 271 271 271 271 270 270 271 271 271 271 271 271 270 269 270 271 271 272 272 272 272 272 273 274
275 275 274 274 274 274 273 273 272 272 271 270 270 270 270 270 269 269 269 269 269 270 270 270 269 270 270 267 270 270 270 270 270 271 271 272 272 273
272 272 272 271 271 271 271 270 270 269 269 269 268 268 268 268 268 268 268 268 268 268 268 269 269 268 268 269 269 269 269 269 270 271 271 272 272 273
270 270 270 269 269 269 269 269 268 268 267 267 267 267 267 267 267 267 267 267 267 267 268 268 267 267 268 268 268 268 269 269 270 270 271 272 273 274
268 268 268 267 267 267 267 267 267 266 266 265 265 265 265 266 266 266 266 266 266 266 266 267 267 267 267 267 268 268 268 269 269 270 270 272 273 273

GFSNE_925_thetae_081.txt.gz
Theta_e
319 320 319 318 318 319 320 319 319 318 317 318 319 318 317 318 319 318 318 317 318 319 319 319 319 318 318 317 315 313 313 313 314 315 315 314 313 312
320 321 320 320 320 320 319 317 317 318 319 318 317 317 317 317 317 317 317 317 317 318 318 319 319 318 318 319 318 316 314 312 312 312 315 315 313 310
320 320 320 320 320 320 319 318 317 317 318 318 318 317 317 317 317 317 317 317 318 318 318 319 319 319 319 319 319 317 317 316 312 311 313 313 309 306
320 320 319 319 320 320 319 318 317 318 318 318 318 317 317 317 317 317 318 318 318 318 319 319 319 319 318 319 318 317 316 316 313 312 309 306 304 302
320 320 320 319 319 319 318 318 317 317 318 317 318 318 317 317 317 317 318 318 318 319 319 319 319 319 318 318 317 315 313 312 309 307 304 302 300 298
320 320 320 320 319 319 318 318 318 318 317 317 317 317 317 317 318 318 317 317 317 318 318 318 318 317 317 315 314 311 308 306 304 301 300 298 297 296
319 318 318 318 318 318 317 317 316 316 316 317 317 317 317 317 316 317 317 317 317 316 315 315 314 313 313 310 307 303 302 300 298 297 296 295 294 294
317 317 317 317 317 317 317 317 316 316 315 316 316 316 316 317 317 318 317 317 313 313 311 308 305 303 302 301 300 299 297 296 294 293 293 292 290 290
318 318 317 317 317 317 317 317 317 317 317 317 316 316 316 317 317 318 317 317 317 307 302 293 294 295 295 294 294 293 293 292 291 290 290 290 289 289
318 318 318 318 317 317 317 315 315 316 315 316 311 311 312 313 313 314 313 306 295 293 294 291 291 290 291 291 291 291 290 290 289 289 289 288 288 288
319 319 317 316 317 317 317 315 314 311 304 302 300 297 297 294 298 300 300 295 291 287 289 288 287 288 288 288 288 288 288 287 286 285 284 283 284 284
316 310 307 309 310 312 312 312 305 290 290 288 288 290 290 291 292 291 291 289 287 285 284 285 284 285 285 284 285 285 284 284 283 283 282 282 282 282
294 290 289 292 297 301 303 300 290 286 284 284 283 282 282 283 284 286 286 286 282 281 281 283 282 282 283 283 282 282 282 281 281 280 279 279 279 280
287 286 286 288 287 286 287 287 287 287 285 283 282 281 281 280 280 281 281 281 280 279 279 281 280 280 280 280 280 280 279 279 278 278 278 278 277 278
283 283 283 284 285 286 285 285 285 284 282 280 280 279 279 279 279 279 279 279 278 277 277 277 277 278 278 279 279 278 278 278 278 277 277 277 277 277
282 281 280 280 280 280 281 280 279 279 279 278 277 277 277 277 276 276 276 277 276 276 275 275 274 274 275 275 275 275 275 276 275 274 273 273 273 273
281 281 279 278 277 277 277 277 277 277 276 276 276 275 275 274 274 274 274 274 274 273 273 272 273 273 273 274 274 273 272 272 271 271 272 272 273 273
279 277 277 276 276 275 275 275 275 274 274 274 273 273 273 273 272 272 271 272 272 272 272 271 271 271 270 271 272 271 271 270 271 271 271 271 272 272
275 275 275 275 274 274 273 273 272 272 272 272 271 271 271 271 270 270 270 270 271 271 270 270 269 270 269 267 269 270 270 270 270 270 270 270 271 271
273 272 272 272 272 272 272 271 271 270 270 269 269 269 269 269 269 269 268 269 269 269 269 269 269 268 268 265 268 268 269 269 269 270 270 270 270 271
271 271 271 271 270 270 270 269 269 268 268 268 267 267 268 268 267 267 267 267 267 268 268 268 267 267 267 268 267 267 268 268 269 269 270 270 271 271
269 269 269 269 269 269 268 268 267 267 266 266 266 266 266 266 266 266 266 266 266 266 267 267 266 267 267 267 267 267 267 268 268 268 270 270 271 271
267 267 267 267 267 267 267 266 266 265 265 264 265 265 265 265 265 265 265 265 266 266 266 266 266 266 266 266 266 267 266 267 267 268 269 269 271 272

GFSNE_925_thetae_084.txt.gz
Theta_e
320 319 320 318 317 317 318 319 319 318 318 318 318 317 318 319 318 318 317 318 318 317 317 317 317 317 318 318 318 318 317 317 317 315 315 315 317 317
321 320 321 320 319 318 319 319 319 319 319 317 317 317 317 318 318 318 317 317 317 316 317 317 317 317 317 318 318 318 318 318 318 318 316 314 313 316
320 320 319 318 318 319 319 318 319 319 317 317 317 317 316 317 317 318 317 317 317 317 317 317 317 317 318 318 318 318 319 318 319 318 317 315 314 314
320 319 319 318 318 319 319 319 318 318 318 317 317 316 317 317 317 317 317 317 317 317 317 317 317 318 318 318 318 319 319 318 318 318 316 314 314 313
321 320 320 319 319 318 319 318 318 318 318 317 317 317 317 317 317 317 317 317 317 317 317 317 317 317 318 318 319 319 318 318 317 317 315 314 311 311
320 320 320 319 319 319 318 318 318 317 317 317 317 317 317 317 317 316 316 316 316 316 317 317 317 317 317 318 318 318 317 316 315 314 311 308 309 309
320 320 320 320 320 320 319 318 317 317 317 317 317 317 317 316 316 316 316 316 316 316 316 316 317 316 316 316 316 316 315 314 311 307 305 306 305 303
318 318 318 318 318 318 318 318 318 317 316 316 316 316 316 316 316 316 316 315 315 315 315 314 312 311 308 307 308 308 308 306 301 300 299 299 297 296
318 318 317 317 317 317 317 317 317 317 317 316 316 315 315 316 315 315 315 315 315 312 306 300 295 295 294 294 294 294 292 292 291 291 290 290 290 289
317 317 317 317 317 317 316 315 315 315 311 311 309 307 306 304 309 306 306 306 298 294 294 292 291 289 290 289 290 289 289 289 289 288 288 288 288 288
316 314 313 313 313 313 314 312 312 300 292 296 297 292 291 293 296 297 296 297 292 286 287 288 287 286 286 286 286 287 287 287 287 286 286 285 284 285
303 299 296 296 297 300 303 304 300 291 291 291 291 290 290 291 291 292 292 289 287 284 283 284 284 285 284 282 283 283 283 283 283 283 283 283 282 282
289 287 286 287 288 293 294 296 291 289 290 289 284 283 283 283 283 284 284 284 281 280 281 283 282 282 282 282 281 280 280 280 280 280 279 279 279 279
283 283 282 282 283 284 284 284 284 284 282 281 279 279 279 279 279 279 280 279 279 278 280 281 279 280 280 280 281 279 278 278 278 278 278 277 277 277
281 280 281 282 283 283 284 284 283 280 279 278 277 277 277 278 279 278 278 277 277 276 276 277 277 277 278 278 278 277 277 277 276 275 274 274 274 274
282 281 280 280 280 280 280 280 279 279 278 277 276 276 276 276 276 276 277 277 275 274 273 273 274 274 275 275 275 275 274 274 273 272 272 272 273 272
281 281 279 278 277 276 276 276 276 276 275 275 274 274 274 273 273 273 274 273 273 273 272 272 271 272 273 273 274 272 272 271 271 271 272 272 271 271
280 276 275 275 274 274 274 273 273 273 273 273 272 272 272 272 271 271 272 272 272 271 271 270 270 270 270 271 271 271 270 270 270 270 270 270 270 270
275 273 273 273 273 272 272 271 271 270 271 270 270 270 270 270 270 270 270 270 270 270 269 269 269 269 269 268 269 269 269 269 269 269 269 270 270 270
272 271 271 271 271 270 270 269 269 269 268 268 268 268 268 268 268 268 268 268 269 269 269 268 268 268 268 268 268 268 268 268 269 269 269 269 269 270
270 270 270 269 269 269 268 268 268 267 267 267 267 267 267 267 267 267 267 267 267 267 267 267 267 267 267 267 267 267 268 268 268 269 269 269 270 270
268 268 268 268 268 267 267 267 267 266 266 265 265 265 266 266 266 266 266 266 266 266 266 266 266 266 267 267 267 267 267 268 270 268 268 269 270 271
266 266 266 266 266 266 266 265 265 264 264 264 264 264 264 265 265 265 265 265 265 265 265 265 265 265 266 266 266 266 266 266 266 267 268 269 270 271

GFSNE_925_thetae_087.txt.gz
Theta_e
317 317 317 317 317 318 318 319 319 323 321 320 318 318 318 318 318 317 317 317 318 317 317 317 317 317 317 317 317 317 317 317 317 317 316 316 315 316
318 319 319 318 317 317 318 319 319 319 321 319 319 318 318 318 317 317 317 316 317 317 318 318 318 317 317 317 317 317 317 317 317 318 318 317 317 317
318 319 320 320 320 320 320 320 319 319 320 318 319 318 318 317 318 317 316 316 316 316 317 318 318 317 317 317 317 317 317 317 318 318 318 318 318 318
320 319 319 318 318 320 319 319 318 318 318 319 319 320 319 318 317 317 317 317 316 316 317 317 317 317 317 317 317 317 317 317 318 318 318 318 318 317
320 320 320 320 319 319 319 319 318 318 319 319 319 319 319 318 318 318 317 318 318 317 317 317 317 317 316 316 316 317 317 317 318 318 318 318 317 317
321 321 321 320 320 320 319 318 318 318 319 318 318 318 318 319 319 319 319 319 318 317 316 315 315 315 316 316 316 316 317 317 317 317 317 317 317 316
320 320 321 321 320 320 320 320 320 319 319 319 319 319 318 318 319 319 318 317 318 318 317 317 316 316 316 315 314 314 313 313 312 312 311 309 310 309
320 320 320 319 319 319 320 320 320 320 318 318 318 317 317 317 317 317 317 317 316 316 317 316 312 306 301 300 300 302 302 303 303 301 299 297 296 294
318 318 318 318 318 318 318 318 317 317 318 316 316 317 316 316 315 315 316 316 315 306 304 298 293 293 291 292 292 293 293 293 292 291 290 290 290 290
316 315 316 316 315 315 315 314 313 311 309 307 302 298 296 298 301 301 302 301 300 299 298 293 290 287 288 287 288 288 288 288 288 288 288 288 288 289
305 304 304 305 305 304 307 306 305 298 294 296 296 294 293 293 296 296 295 296 295 288 288 288 286 284 284 284 283 285 286 286 286 286 286 286 286 286
292 290 290 293 297 300 302 301 294 290 289 288 287 288 288 287 289 289 289 289 288 285 283 284 285 286 286 282 282 282 282 283 283 283 283 283 283 283
285 284 284 285 288 291 293 291 287 286 284 284 283 282 282 282 282 283 283 283 282 281 281 283 283 284 284 284 282 280 280 280 280 280 280 279 279 279
283 282 281 281 283 284 284 284 285 285 283 281 280 279 279 279 279 279 280 279 279 278 280 281 281 281 283 283 283 281 280 279 279 278 277 277 276 276
281 280 281 282 284 283 284 284 283 281 281 281 280 279 278 278 279 279 278 277 276 276 275 276 277 278 279 279 280 279 278 277 276 275 274 274 274 275
281 281 281 280 279 279 279 279 278 279 280 279 279 278 278 277 277 277 277 278 276 275 274 273 274 276 276 276 277 276 275 275 274 274 274 274 274 274
280 280 280 280 279 278 277 277 277 277 277 277 277 277 276 275 275 275 275 275 275 275 274 273 273 273 274 274 276 274 274 273 273 273 273 273 274 274
279 278 277 277 277 276 276 275 274 274 274 274 274 274 274 274 273 273 274 274 274 273 273 272 272 273 273 273 271 273 273 272 272 272 272 273 273 274
276 276 275 275 275 274 273 273 272 271 271 271 272 272 272 272 272 272 272 273 272 272 271 271 271 271 274 274 272 270 271 271 271 272 273 273 273 273
273 273 273 272 272 271 271 270 270 269 269 269 269 269 270 271 271 271 271 271 271 271 271 270 270 270 271 271 271 271 269 270 271 271 272 272 273 273
271 270 270 270 269 269 268 268 267 267 267 267 267 267 268 269 269 269 269 268 269 270 270 270 269 268 269 270 271 271 271 270 269 270 271 272 273 274
268 268 268 267 267 267 267 267 267 266 266 266 266 266 266 267 267 267 267 268 268 268 269 268 268 268 269 270 270 270 271 270 270 270 270 270 271 274
266 266 266 265 266 265 265 265 264 264 263 263 264 264 264 265 265 266 266 267 267 267 267 268 268 268 269 269 269 270 270 270 270 271 272 272 272 272

GFSNE_925_thetae_090.txt.gz
Theta_e
321 321 322 322 321 322 321 319 319 322 320 320 322 320 319 318 317 318 318 317 317 317 317 316 318 317 317 317 317 317 317 317 317 317 317 316 316 317
319 320 316 320 321 322 321 321 321 321 322 320 320 321 320 318 318 318 318 318 317 317 317 317 317 317 317 317 317 317 318 317 317 316 316 317 316 316
317 319 319 319 319 319 319 317 319 320 320 320 321 321 321 321 320 318 317 318 318 317 317 316 316 317 317 316 316 317 317 317 317 317 317 316 316 317
318 318 317 316 316 319 320 320 319 319 319 319 319 319 319 318 318 319 320 319 319 319 318 317 316 316 316 316 317 317 317 317 317 317 316 316 316 316
318 320 319 319 319 319 319 318 318 319 319 320 320 319 320 320 321 321 321 321 321 320 319 319 318 318 318 317 317 316 316 316 315 315 316 315 315 315
316 317 318 319 319 319 319 320 320 320 321 320 319 319 319 320 321 321 321 321 321 320 321 320 319 319 317 317 316 315 315 314 314 313 312 313 313 314
321 319 319 319 320 320 321 321 321 322 322 322 322 321 321 321 321 321 320 320 319 320 320 319 318 316 314 311 310 311 312 312 311 310 308 309 309 306
322 322 321 321 320 321 322 321 321 321 321 321 321 320 319 319 319 318 318 318 318 316 310 312 306 304 300 298 294 296 299 300 300 300 300 298 297 296
320 320 320 320 320 320 319 319 319 319 318 315 312 313 309 308 307 308 308 306 303 304 302 302 298 294 290 289 290 290 291 291 291 291 290 290 290 291
312 313 313 313 314 316 315 312 310 308 307 304 301 298 298 299 299 299 299 298 297 294 294 295 290 286 285 285 286 287 287 287 287 287 287 288 288 288
300 300 301 301 302 303 305 304 299 293 290 291 290 290 291 292 295 295 293 293 294 286 288 288 286 284 284 284 284 284 284 284 284 285 285 286 286 286
291 291 291 292 296 299 300 298 290 287 288 287 289 288 288 287 288 289 288 289 289 288 284 286 287 287 288 285 284 283 284 282 282 282 281 280 282 284
285 284 284 286 289 292 293 291 287 286 285 285 283 283 283 283 282 282 283 286 287 285 282 286 286 288 288 287 285 283 282 282 282 282 281 279 279 278
284 283 282 282 282 283 285 284 285 284 284 284 284 284 283 283 281 280 280 280 280 280 280 283 284 285 286 287 286 284 283 281 280 280 279 278 277 277
282 281 281 282 282 282 282 283 284 284 284 284 284 283 282 281 282 282 281 281 279 277 277 279 280 281 282 284 284 283 279 280 279 278 277 277 278 278
282 281 281 281 281 281 282 282 281 282 282 282 282 282 281 280 280 280 280 281 280 279 277 276 277 278 279 279 279 280 279 278 277 277 277 277 277 277
283 283 283 283 283 282 281 280 280 280 280 280 280 280 279 279 278 278 278 279 279 278 278 277 276 276 276 276 279 278 277 277 277 276 276 276 277 277
283 282 281 281 281 280 280 278 277 276 276 277 277 277 277 277 277 277 277 277 278 277 276 275 276 277 277 276 274 275 276 276 275 275 276 276 277 277
281 279 279 279 278 277 277 276 275 274 274 275 275 275 276 276 276 276 276 276 276 276 275 274 275 275 278 279 276 273 273 274 274 275 276 276 276 277
278 277 277 276 275 275 274 274 273 273 273 273 273 273 274 274 275 274 274 274 275 274 275 274 274 273 274 275 274 274 274 273 273 274 274 275 275 276
274 274 274 273 273 273 272 272 271 271 271 271 271 271 272 273 272 272 273 271 271 273 274 273 272 270 271 273 275 275 274 274 272 272 273 274 275 276
272 272 271 271 271 271 271 270 271 270 270 270 270 270 270 271 271 271 271 271 272 272 272 272 272 272 272 273 274 273 274 274 274 274 274 273 274 276
270 270 270 269 269 269 269 269 268 268 267 267 268 268 268 269 269 270 270 270 270 270 271 271 272 272 272 273 272 273 274 274 274 275 276 275 275 275

GFSNE_925_thetae_093.txt.gz
Theta_e
324 324 324 323 323 324 323 321 322 322 321 322 322 322 323 323 322 321 321 319 318 317 317 316 316 316 317 317 316 317 317 317 317 317 317 317 318 318
324 324 322 323 322 323 323 322 322 322 321 319 321 322 322 321 321 321 319 318 317 318 318 317 316 316 316 317 316 316 317 317 317 317 317 317 317 317
321 321 322 322 322 322 321 321 321 321 321 321 320 320 320 321 321 320 319 318 318 319 318 317 317 317 317 317 317 317 316 317 316 316 316 316 316 316
317 319 320 320 319 318 322 320 320 321 320 320 319 318 319 319 319 321 322 321 320 320 320 319 319 318 318 318 318 318 317 316 317 317 316 316 315 314
315 317 316 319 320 320 320 317 316 319 319 318 318 319 320 321 321 320 320 321 322 322 321 321 321 320 320 318 317 317 317 317 317 317 316 315 315 314
316 316 317 320 319 319 319 316 317 319 318 319 318 319 320 321 321 321 322 322 322 322 322 321 320 319 319 318 317 317 316 317 316 315 313 314 312 311
314 317 317 320 320 320 319 319 319 319 320 320 320 321 322 322 323 322 322 321 321 320 320 318 317 313 308 305 304 305 303 303 303 303 304 304 302 300
319 319 319 318 317 317 317 318 320 321 322 322 322 321 321 321 320 318 315 316 316 313 309 307 306 304 299 298 293 293 294 294 295 295 294 293 293 293
320 321 322 322 322 321 320 320 319 317 316 313 311 310 306 306 305 306 304 303 303 302 300 300 297 295 292 289 288 290 290 290 290 290 289 289 289 289
314 313 314 314 314 316 313 310 305 303 303 304 301 296 295 296 299 298 298 297 296 294 295 294 290 288 287 287 287 288 288 288 288 288 288 288 287 287
300 300 302 302 303 304 304 301 295 292 291 292 292 291 291 294 294 294 292 293 294 288 288 288 287 286 286 286 285 285 285 285 285 284 284 285 286 286
291 291 291 295 298 300 298 295 289 287 288 287 287 287 288 287 288 288 289 291 291 291 285 287 289 289 290 287 286 285 285 284 283 283 282 281 281 281
287 286 286 288 291 292 293 290 287 286 286 285 285 285 285 284 283 283 283 286 288 286 283 286 287 288 288 289 287 285 284 284 284 284 283 281 279 279
284 283 283 283 284 285 285 285 285 286 286 286 285 284 284 284 283 282 282 281 281 281 281 283 285 285 286 288 289 287 286 284 283 282 280 280 280 280
283 283 283 283 283 283 284 285 285 285 285 285 285 284 284 283 283 284 284 284 282 279 279 279 280 281 283 283 284 283 282 282 281 280 279 279 279 279
283 284 283 283 283 283 283 283 282 282 283 283 284 283 283 282 282 282 282 282 283 282 280 278 278 279 280 280 281 282 281 280 279 279 278 278 278 279
284 284 284 284 284 283 282 281 281 281 282 282 282 281 281 281 280 280 280 281 281 280 280 279 278 279 278 277 278 279 279 279 278 278 277 278 278 279
283 283 282 282 282 282 281 280 279 278 278 279 279 279 279 279 279 279 279 279 279 279 278 277 277 278 280 278 277 277 276 277 276 276 277 278 278 278
282 281 281 280 280 279 278 278 277 276 277 277 277 277 278 278 278 278 277 278 278 278 277 277 276 276 278 279 278 276 276 276 276 276 276 276 277 277
280 279 279 278 277 277 276 276 275 275 275 275 275 275 275 276 276 276 276 275 275 276 276 276 276 274 273 275 275 275 276 275 276 275 275 275 275 276
276 276 276 276 275 275 275 274 273 273 273 274 274 273 273 274 274 274 274 274 274 275 275 275 274 273 273 274 276 276 276 276 275 275 275 275 276 276
275 274 274 273 273 273 273 272 273 272 271 272 272 272 271 272 273 273 273 273 273 273 273 274 274 274 274 274 275 275 275 276 275 276 276 276 276 277
273 273 272 272 272 271 272 271 270 270 270 270 270 269 270 271 271 271 272 272 272 272 272 272 273 274 274 274 275 275 275 276 275 276 276 277 276 277

GFSNE_925_thetae_096.txt.gz
Theta_e
324 324 324 324 324 323 323 322 322 321 319 323 323 323 323 323 323 322 322 322 321 321 318 318 317 317 317 316 316 316 316 317 316 316 317 317 316 316
323 324 324 324 323 323 324 324 323 322 320 321 322 322 322 322 323 323 323 322 321 321 320 317 317 317 318 317 317 317 316 316 316 316 316 316 316 316
324 324 324 323 322 320 316 321 322 321 320 321 320 320 321 322 322 321 320 319 320 319 318 318 317 318 318 318 318 317 317 318 317 318 317 316 315 315
323 323 324 323 322 322 322 321 321 321 319 320 320 319 319 318 318 318 319 320 320 319 319 318 319 320 320 319 319 319 319 318 319 319 317 317 317 316
323 322 322 321 321 320 321 320 321 320 319 318 319 319 318 318 318 319 320 320 320 321 321 321 320 321 320 319 319 319 319 318 317 316 315 315 313 311
319 318 318 317 319 320 321 320 320 319 318 318 318 318 318 317 318 319 320 321 322 322 321 320 318 317 317 315 317 317 313 310 308 305 303 303 303 304
317 317 316 318 318 318 320 320 320 319 318 318 318 318 318 319 319 321 322 321 319 318 313 313 312 308 306 304 301 301 299 299 298 298 298 297 297 295
317 315 316 317 316 319 319 320 320 319 320 320 320 320 320 318 315 313 310 309 310 309 308 305 303 301 299 297 295 293 293 293 292 291 290 290 290 290
317 317 317 318 318 318 318 319 318 317 317 316 315 310 306 306 306 306 303 302 303 302 300 298 296 295 293 290 290 290 289 289 289 289 289 288 288 288
310 311 310 309 309 311 313 309 304 302 303 304 304 299 297 297 299 299 298 296 295 294 293 293 290 289 289 288 287 286 286 286 286 286 286 286 286 286
297 299 300 302 302 303 304 300 294 292 292 293 292 291 291 294 296 294 293 294 292 288 288 289 288 287 287 286 286 285 285 284 284 284 284 283 282 282
291 292 294 297 299 299 299 296 290 288 290 290 289 288 288 288 290 290 291 291 291 288 285 288 288 288 289 287 287 287 286 285 284 284 283 281 280 280
286 286 287 291 292 292 292 292 289 287 286 286 285 285 284 284 284 284 286 288 286 283 283 286 286 287 288 288 288 287 286 285 284 282 281 280 280 280
284 284 284 286 286 286 286 286 286 286 286 285 284 284 284 284 284 284 284 282 281 280 280 282 283 282 284 286 288 286 285 282 282 281 280 279 279 278
284 284 284 284 284 285 285 285 285 285 284 284 284 284 283 283 282 283 283 284 282 280 280 279 279 279 281 281 281 281 282 281 280 279 279 278 278 278
284 284 283 283 282 282 282 282 282 283 283 283 283 282 282 281 280 281 281 282 282 281 280 279 278 278 278 278 278 279 279 279 279 278 277 277 277 278
284 284 283 283 283 281 280 279 279 280 280 280 280 280 279 280 279 279 280 280 280 279 279 278 277 278 279 278 278 278 277 277 277 276 276 277 277 277
282 282 282 281 281 280 279 278 277 277 278 278 278 278 279 278 279 278 278 278 279 278 278 277 277 276 277 278 277 276 276 276 276 276 276 276 276 276
280 280 279 279 278 277 277 276 276 276 276 276 276 276 276 277 277 277 276 275 275 276 277 277 276 274 273 271 275 276 275 276 276 276 275 275 275 275
278 278 277 277 276 276 275 274 274 274 274 274 274 274 274 275 275 274 275 274 274 275 276 276 275 274 273 272 273 274 276 276 275 276 275 275 275 275
275 275 275 275 275 274 274 274 273 272 272 272 272 272 272 273 273 273 273 273 273 274 274 274 274 274 274 274 274 275 275 275 276 276 276 276 276 276
274 274 273 273 273 273 272 272 272 271 271 271 270 270 270 271 271 272 272 272 272 273 272 273 272 272 274 274 274 275 275 275 275 275 275 276 276 276
272 272 271 271 271 271 271 270 270 269 269 268 268 269 269 270 270 270 271 271 271 271 271 270 270 271 272 273 274 274 274 273 275 274 274 274 275 275

GFSNE_925_thetae_099.txt.gz
Theta_e
324 324 324 321 324 322 322 322 321 321 321 322 322 321 321 320 321 321 321 321 320 320 320 320 319 319 319 318 316 316 317 316 316 316 316 316 316 316
324 324 323 323 323 324 323 323 322 320 320 321 322 322 321 322 321 321 321 321 322 322 321 320 320 320 319 317 317 317 317 318 317 316 315 315 315 316
324 323 323 323 323 323 323 323 323 321 319 320 321 321 322 323 322 322 322 321 321 321 320 319 319 319 318 318 318 317 318 319 318 317 316 314 313 315
324 324 323 323 323 322 321 317 320 321 321 319 320 320 319 320 320 320 320 319 318 319 319 319 319 319 319 319 318 318 319 318 317 316 317 317 313 312
323 323 323 322 322 322 321 321 320 319 319 320 319 318 318 318 318 318 318 317 318 319 319 320 320 319 319 319 319 316 314 313 315 312 309 309 308 306
323 323 322 323 323 322 322 321 321 318 319 320 319 318 317 317 318 317 316 317 319 319 318 317 315 312 313 310 310 309 308 305 303 303 302 301 300 300
323 323 322 321 321 321 320 320 319 320 320 319 318 317 317 317 317 317 319 319 316 313 311 308 308 307 302 301 300 299 299 298 297 296 294 294 293 292
320 318 317 319 318 317 316 318 320 319 319 318 316 316 317 317 316 315 316 313 309 307 306 302 300 299 297 295 294 292 291 291 290 290 290 290 289 289
316 316 316 316 317 316 317 318 319 319 319 318 317 314 310 311 311 307 306 307 305 300 299 295 293 293 291 290 290 289 289 289 288 288 288 287 287 287
311 312 313 312 313 314 313 312 308 307 308 309 309 304 301 301 301 301 300 299 295 293 294 292 289 288 287 287 286 286 286 286 285 285 284 283 282 282
299 301 303 304 304 306 306 300 295 292 292 295 294 293 294 296 296 296 294 294 290 287 288 289 288 288 288 287 287 286 286 285 284 284 283 282 281 280
292 294 298 299 298 299 300 295 289 287 288 289 290 290 291 291 291 292 292 292 289 286 285 288 288 288 289 288 288 287 286 285 284 283 282 281 281 280
286 287 289 292 293 293 294 292 288 287 286 286 285 285 285 285 285 286 287 288 287 282 284 286 286 286 287 287 287 288 286 283 284 282 280 280 279 279
285 285 286 287 287 288 288 287 287 287 286 284 283 283 283 284 284 284 283 282 281 281 281 284 281 281 281 283 285 282 283 281 280 279 279 278 278 278
284 284 284 285 286 285 286 285 285 284 284 283 283 282 281 282 282 283 283 281 280 280 279 279 278 279 279 279 279 279 280 280 278 278 278 277 277 277
283 282 282 282 282 282 283 283 283 283 282 281 281 281 280 280 280 281 281 282 280 279 278 278 278 278 278 278 278 278 277 277 276 276 276 276 276 276
283 282 281 280 279 279 279 279 280 280 280 280 279 279 279 279 279 279 279 279 278 278 277 277 277 276 278 278 277 277 276 276 276 276 275 275 275 275
281 279 279 278 278 277 276 276 277 277 277 278 278 277 277 277 277 276 277 276 276 276 276 276 276 275 275 275 276 275 275 275 276 275 275 275 275 275
278 277 277 276 276 275 275 275 275 275 275 275 275 275 275 275 275 274 274 274 274 275 275 274 274 274 270 267 273 274 274 276 275 275 276 276 275 275
276 276 276 275 275 274 273 273 273 273 273 273 273 273 273 273 273 273 273 273 273 274 273 273 273 273 273 272 273 274 274 275 275 275 275 276 275 276
274 274 274 273 273 273 272 272 272 271 271 271 271 271 271 271 272 272 272 272 272 272 272 272 271 272 272 273 274 274 274 274 274 274 275 275 274 274
272 272 272 272 272 271 271 271 270 270 270 269 269 269 270 270 270 270 270 270 270 271 270 270 270 270 270 271 272 272 272 272 273 273 273 273 273 274
270 270 270 270 270 270 269 269 268 268 267 267 268 268 268 268 268 269 269 269 269 269 268 268 268 269 269 269 270 271 271 272 272 271 271 271 272 274

GFSNE_925_thetae_102.txt.gz
Theta_e
325 325 324 322 320 320 320 320 319 320 320 319 321 321 321 321 321 320 320 319 319 320 320 320 320 319 318 319 319 319 318 318 317 317 317 317 317 317
325 324 324 322 321 320 320 320 319 319 319 320 321 321 320 320 320 320 321 320 320 320 320 320 320 320 320 320 319 319 317 317 317 317 317 317 318 317
325 324 324 323 322 322 322 321 320 320 319 319 321 321 321 321 320 320 321 321 321 319 320 320 320 321 321 320 320 319 318 318 318 317 317 317 317 316
324 324 324 323 321 322 323 323 322 321 320 318 320 322 322 322 321 321 321 321 319 318 320 319 317 319 320 319 319 319 319 319 318 318 318 313 312 312
324 324 324 323 322 322 322 322 322 320 320 320 319 320 320 321 321 321 321 320 320 319 317 317 318 319 319 319 318 315 313 314 315 311 310 306 305 304
324 324 323 323 322 322 322 319 319 320 319 318 319 319 319 318 319 319 318 318 318 317 316 316 316 313 309 307 309 307 306 303 302 301 299 300 299 298
323 323 323 322 322 322 321 321 321 320 319 318 317 317 317 317 317 317 317 316 314 313 308 304 302 303 301 300 298 299 297 297 296 295 295 293 292 291
321 322 322 322 321 321 321 320 319 318 319 319 318 317 316 317 317 316 316 315 306 306 302 298 298 297 296 296 295 294 292 292 291 290 290 289 289 288
319 318 318 319 319 318 318 319 318 319 319 318 317 316 316 316 315 313 312 310 303 299 299 293 292 292 291 291 291 290 289 289 288 287 287 285 284 283
314 316 316 315 316 317 314 311 308 310 313 316 316 313 313 311 309 308 306 303 296 294 295 290 289 289 288 288 288 288 287 285 285 285 284 282 281 281
305 307 309 312 310 311 309 304 297 294 295 299 299 298 298 300 299 300 298 296 290 288 291 290 288 287 287 287 287 287 286 285 284 283 282 281 281 280
295 296 298 300 298 299 303 300 293 290 292 292 292 293 293 293 294 294 295 295 289 286 287 288 288 288 287 287 287 286 285 284 284 282 281 281 281 279
287 288 290 292 293 293 292 291 289 288 288 288 287 287 287 287 287 288 291 291 289 283 286 287 286 286 287 287 287 287 286 285 284 283 280 280 278 278
285 285 286 287 287 288 288 287 286 287 285 285 284 284 284 284 283 283 283 282 281 281 283 285 281 282 282 283 283 281 280 279 279 278 278 278 278 277
283 283 285 285 285 285 285 285 285 284 283 282 281 281 281 283 282 281 280 280 279 279 278 278 278 278 279 279 278 278 278 278 277 277 276 276 276 275
285 284 283 283 283 283 283 283 282 282 280 280 279 280 281 281 280 281 280 279 278 277 277 277 277 277 278 278 278 277 276 276 276 276 275 275 276 275
282 281 281 280 279 279 279 279 280 280 279 279 279 279 278 279 278 279 278 278 277 276 276 276 276 276 277 277 276 275 275 275 276 275 275 275 275 275
279 278 277 277 276 276 276 276 277 277 277 277 277 277 277 276 276 276 276 276 276 275 274 274 274 275 275 275 274 274 274 274 275 275 275 275 275 275
277 276 276 275 275 275 275 274 274 274 275 275 275 275 275 275 275 274 274 274 274 274 274 273 273 273 272 271 273 274 274 274 274 274 274 274 275 274
275 275 275 274 274 274 273 273 273 273 272 273 273 273 273 273 273 272 272 273 273 273 273 272 271 271 272 271 272 273 274 274 273 273 274 274 273 273
273 273 273 273 272 272 272 271 271 270 270 270 271 271 271 271 271 271 271 271 271 271 271 270 270 270 271 272 271 271 272 272 272 273 272 272 272 272
272 272 271 271 271 271 270 270 270 269 269 269 269 269 269 270 270 270 270 270 269 269 269 268 268 269 269 269 270 270 270 271 271 270 270 271 271 271
270 270 270 270 270 269 269 268 268 267 267 267 267 268 268 268 268 268 268 268 268 268 268 267 267 268 268 269 269 269 269 269 268 268 269 269 270 270

GFSNE_925_thetae_108.txt.gz
Theta_e
328 327 326 325 325 324 323 322 322 323 321 319 319 320 320 320 319 319 318 318 319 319 319 318 317 317 316 316 315 315 317 317 316 316 316 317 317 317
327 327 325 325 325 323 321 321 322 322 322 320 319 320 320 320 319 318 318 319 319 319 318 318 319 319 318 318 317 317 317 317 317 317 318 318 318 318
326 325 324 325 325 323 321 320 320 320 320 319 320 320 320 320 320 319 319 320 320 320 320 319 319 319 319 319 318 318 318 319 319 319 319 319 319 318
325 324 325 325 325 323 322 320 319 319 319 317 318 318 319 319 320 320 319 320 320 320 320 320 319 319 319 319 319 319 319 319 319 319 319 318 318 316
324 325 325 325 324 322 321 320 319 319 319 318 318 318 319 319 318 318 318 318 318 318 319 319 319 319 319 319 319 319 318 316 316 315 315 314 310 307
321 322 324 325 324 324 322 320 320 319 319 318 318 318 319 319 319 318 316 317 317 316 317 319 317 317 317 316 313 312 310 309 311 309 306 304 302 302
319 321 322 324 323 324 323 321 320 320 319 319 318 319 318 318 319 318 316 314 311 312 311 308 309 308 308 305 305 302 302 300 300 299 298 297 295 294
318 322 323 324 324 324 323 322 321 320 319 319 319 319 318 318 319 318 315 309 307 307 311 305 302 302 301 299 297 297 295 294 292 291 290 289 289 288
312 315 320 323 323 323 322 321 320 320 320 319 319 319 317 317 319 318 317 316 313 310 310 297 296 296 295 293 292 291 291 290 289 286 284 283 283 282
306 306 309 309 309 316 318 313 310 314 318 318 317 317 318 319 319 318 316 314 307 303 302 291 290 290 290 289 289 288 287 286 285 283 282 281 281 281
298 299 302 306 302 301 306 304 298 295 299 310 315 314 317 317 316 316 312 304 292 292 294 292 288 287 287 287 286 285 285 284 284 283 282 281 281 280
292 292 292 296 301 304 301 300 294 292 294 298 296 297 298 299 302 305 305 302 291 290 291 290 287 288 286 286 285 285 284 284 283 284 283 282 280 279
285 285 286 291 293 295 295 295 291 292 291 293 292 291 291 292 293 295 296 297 292 285 288 289 288 288 287 285 283 284 284 284 283 281 280 279 278 278
283 283 283 284 287 289 288 288 290 290 290 286 285 282 283 281 283 286 288 289 288 285 287 289 287 287 286 282 280 279 279 279 279 279 278 277 277 276
280 280 280 281 282 284 286 287 287 284 282 281 280 280 280 279 279 279 279 279 279 279 281 285 287 285 285 281 279 277 278 277 277 277 277 276 275 275
281 280 279 279 280 280 281 280 280 280 280 279 279 279 280 279 279 278 277 277 276 276 278 278 279 280 279 278 278 276 277 277 276 275 275 275 275 274
282 281 279 278 277 277 277 278 278 278 278 278 278 278 278 278 278 278 277 276 275 275 275 277 278 278 277 277 276 275 275 275 275 275 274 274 274 273
277 276 275 275 275 275 275 275 276 277 277 277 277 277 276 276 276 276 276 275 275 274 274 274 275 275 275 274 274 274 274 274 273 273 273 273 273 272
275 274 273 273 273 273 273 273 273 274 276 276 276 275 275 276 276 275 275 275 274 273 273 273 273 274 275 275 274 273 273 272 272 272 272 272 271 271
272 272 272 272 272 272 272 272 273 273 274 274 274 274 274 273 273 273 273 274 273 272 271 271 270 271 272 272 272 272 271 272 272 270 270 270 270 270
271 271 270 270 270 270 270 270 271 271 271 271 271 272 272 272 271 271 272 272 272 271 270 269 269 269 270 271 270 270 269 270 269 269 269 269 269 270
269 269 269 269 269 269 269 269 269 269 269 269 269 270 270 270 270 270 270 269 269 269 268 268 268 269 269 269 269 268 268 268 268 268 268 268 269 269
268 268 268 268 267 267 267 267 267 267 267 267 268 268 268 268 268 268 268 268 267 267 267 267 267 267 268 267 267 267 266 266 266 267 268 268 268 268

GFSNE_925_thetae_111.txt.gz
Theta_e
329 328 328 327 327 326 325 325 325 324 322 320 321 321 322 322 322 320 320 319 319 318 318 318 318 318 317 317 318 319 319 320 319 320 319 318 318 317
329 328 328 328 327 326 326 324 324 323 324 322 320 321 321 322 321 320 320 319 318 318 319 318 318 318 318 317 317 316 317 317 317 317 317 316 316 317
328 328 327 327 326 326 325 324 323 323 323 323 320 320 320 321 321 320 321 320 319 318 318 319 319 318 318 317 317 317 317 317 316 317 317 317 318 318
327 326 326 326 326 325 324 323 322 322 322 322 319 319 320 320 320 320 320 319 319 319 318 319 319 318 318 318 318 318 318 317 317 317 318 318 318 317
325 325 325 325 325 324 324 324 322 321 321 321 318 318 318 319 319 319 320 319 318 319 319 319 319 319 319 319 318 318 318 318 318 318 318 316 315 312
319 320 321 322 323 324 324 324 323 321 320 320 318 318 318 318 318 318 315 314 314 315 317 318 318 318 318 318 318 318 317 317 316 313 311 310 306 303
317 317 318 320 321 321 323 323 323 321 320 320 319 318 318 318 317 318 315 310 308 310 310 309 311 311 310 311 311 311 311 309 309 306 301 299 297 295
312 311 311 317 319 321 321 322 323 321 320 320 320 318 318 318 318 318 312 307 306 304 305 301 304 304 303 303 302 304 302 299 298 296 294 292 290 289
304 306 307 307 313 317 320 321 322 322 321 320 319 319 319 318 318 317 313 312 311 306 306 293 296 296 296 294 294 294 292 293 292 290 289 288 287 287
295 296 299 301 302 307 311 310 309 309 312 319 319 319 319 318 318 317 315 311 306 301 305 290 291 290 290 290 289 289 288 288 286 284 283 283 283 282
289 290 293 296 297 300 302 298 295 297 297 304 311 312 317 316 317 317 310 306 293 295 299 292 289 287 288 287 287 286 285 284 283 283 283 282 281 281
286 286 286 289 295 296 296 296 294 293 295 296 297 298 304 306 310 311 308 309 294 292 294 292 288 288 285 285 285 285 284 284 284 283 283 282 280 280
282 282 283 283 285 290 293 291 290 290 291 292 293 294 294 296 297 297 300 301 296 287 290 291 288 287 286 283 282 283 284 284 283 282 281 279 279 279
280 280 280 280 281 282 284 287 289 287 285 286 284 282 281 282 285 287 290 291 289 288 289 290 288 287 284 281 279 279 281 281 281 278 278 277 277 277
280 281 282 282 283 282 281 283 282 282 281 281 280 280 279 279 280 281 282 283 284 285 286 288 289 286 285 281 279 278 278 278 278 278 278 278 278 277
281 281 281 281 281 281 281 280 279 279 279 279 279 279 279 279 278 278 278 278 278 277 279 283 284 286 281 281 281 280 279 279 278 278 277 277 277 276
279 280 279 278 277 277 278 279 279 278 278 278 278 278 278 278 277 278 277 277 277 277 277 277 278 278 278 278 277 277 277 277 276 276 276 276 276 276
278 277 277 276 276 275 275 275 276 277 277 278 277 277 277 277 277 277 276 276 276 276 276 277 277 277 276 275 276 276 276 276 275 275 275 275 276 275
276 276 275 274 274 273 273 273 273 275 276 276 276 276 276 277 278 277 277 276 275 275 274 274 276 277 279 278 274 274 275 274 274 274 273 274 274 274
274 274 273 273 272 272 272 272 272 273 273 273 274 274 275 275 275 276 275 275 274 273 272 272 273 274 276 276 275 272 272 273 273 273 273 272 272 272
272 271 271 271 271 270 270 270 270 270 270 271 271 272 273 274 273 273 273 273 273 273 272 271 270 271 272 273 273 272 271 270 269 270 271 272 273 273
270 269 269 268 268 268 268 269 269 269 269 270 270 270 271 272 272 272 272 272 271 271 270 270 270 271 272 272 271 271 271 269 269 268 268 269 271 273
267 268 267 267 267 266 266 267 267 267 267 268 268 268 269 270 270 270 270 270 270 270 270 270 270 270 270 269 270 270 269 269 269 270 270 268 268 269

GFSNE_925_thetae_114.txt.gz
Theta_e
332 333 332 332 331 330 330 328 328 330 326 324 326 322 323 323 324 323 321 321 319 319 317 318 318 318 319 319 318 317 317 317 317 317 318 319 320 319
332 331 331 331 330 330 329 328 327 328 329 324 325 325 322 322 323 323 323 322 321 319 318 317 318 317 318 318 318 318 318 318 318 319 319 319 319 319
331 330 330 330 329 328 328 328 328 327 326 325 324 324 322 321 322 323 322 323 322 321 319 318 318 317 318 318 318 318 317 318 318 318 319 318 317 316
330 329 329 329 327 328 328 327 327 326 325 325 324 322 321 321 321 321 321 322 322 322 320 319 318 318 318 318 318 318 318 317 317 317 316 316 316 316
328 328 328 328 327 326 326 326 326 325 325 324 324 323 322 321 320 321 320 321 322 322 320 319 318 318 319 319 319 319 318 318 317 317 317 317 316 316
323 325 325 324 324 324 324 324 324 324 324 323 324 321 321 320 320 320 320 321 321 318 320 319 318 318 318 319 318 318 318 317 318 317 317 316 315 313
320 320 320 317 317 318 319 321 324 324 324 323 322 322 319 319 319 320 320 315 311 316 316 316 316 317 317 317 317 318 318 317 317 316 316 313 310 307
308 309 309 309 311 311 314 317 319 320 323 323 322 321 319 319 318 319 318 308 306 307 312 305 306 308 308 308 311 313 313 312 310 308 307 304 302 300
297 297 298 299 301 301 304 306 311 316 317 317 321 321 320 319 319 318 317 312 314 304 305 295 298 298 299 299 299 301 303 303 302 301 299 297 295 294
290 290 291 291 294 299 299 299 302 304 306 307 311 316 319 319 319 318 317 312 307 302 305 292 292 291 292 292 292 292 293 293 293 292 291 290 288 287
286 285 285 287 290 295 295 294 294 293 293 296 299 303 311 318 318 318 307 304 294 296 298 293 290 288 288 288 287 287 287 286 286 286 285 285 283 282
283 283 283 284 287 292 292 291 290 288 290 293 295 299 301 302 309 312 309 309 295 293 294 291 288 288 286 286 285 285 284 284 283 283 282 281 282 282
281 281 282 282 283 284 287 286 285 288 288 287 284 285 292 295 293 294 299 306 299 292 294 294 290 288 286 284 284 284 284 284 283 282 282 281 280 281
280 280 281 281 282 284 285 286 286 285 284 283 281 280 280 281 283 285 290 293 293 289 289 292 291 289 284 282 280 281 283 282 282 280 280 279 278 278
281 280 281 281 280 281 281 284 284 282 280 280 280 279 279 280 281 282 282 284 288 288 289 291 290 287 285 281 279 279 279 279 280 279 279 280 280 280
282 282 282 282 281 280 280 280 280 280 280 279 279 279 279 279 280 280 280 280 280 280 282 284 285 285 281 281 280 280 279 280 279 279 280 279 279 279
283 283 282 282 282 282 281 280 280 280 280 280 280 280 279 278 278 278 279 279 279 279 278 278 280 280 280 281 281 281 280 280 280 278 278 278 279 279
281 281 280 280 280 280 280 280 279 279 280 280 280 280 280 280 279 278 278 278 278 278 279 279 279 279 278 277 278 278 278 277 277 276 277 278 278 278
279 279 278 278 278 278 278 278 278 277 277 278 279 279 279 279 279 279 278 277 277 277 276 277 279 281 281 279 275 276 276 276 276 276 276 276 276 276
276 276 276 276 276 276 276 276 276 276 276 276 277 277 278 278 278 278 277 277 276 275 275 275 276 278 280 279 276 273 274 275 275 275 275 274 274 274
274 274 274 274 274 274 274 274 274 274 275 275 275 276 276 277 276 276 275 275 275 274 274 273 272 274 275 275 275 274 272 271 271 272 273 274 276 276
272 272 272 272 272 272 272 272 273 273 274 274 274 275 275 275 275 275 275 275 274 274 273 273 273 274 275 276 275 273 273 272 271 270 270 271 273 276
270 270 270 270 270 270 270 270 271 271 271 272 272 273 273 274 274 274 274 273 273 273 273 273 273 273 273 273 274 273 272 272 272 273 273 271 270 270

GFSNE_925_thetae_117.txt.gz
Theta_e
334 333 334 335 333 332 332 331 332 335 333 329 329 329 327 325 325 323 324 324 324 323 321 320 320 320 319 319 318 317 317 316 316 316 316 317 317 317
333 333 334 335 334 333 332 331 331 331 334 330 327 327 327 325 324 323 323 323 323 323 321 320 319 319 319 320 319 318 317 317 316 316 316 317 317 318
333 333 333 334 333 332 331 331 331 330 330 329 329 327 326 327 324 323 323 323 323 323 322 321 319 318 318 318 319 319 319 318 317 317 317 317 317 318
332 332 332 332 332 331 330 330 329 329 328 328 327 326 326 326 326 323 322 323 323 323 323 321 320 319 317 318 318 317 319 318 318 318 318 318 319 319
331 330 330 330 330 329 329 328 329 328 327 327 327 326 326 325 325 322 322 322 322 323 323 322 321 319 318 317 318 317 317 318 318 318 317 317 317 317
329 328 328 326 325 323 323 325 326 327 326 326 326 325 325 324 324 323 322 321 321 322 322 323 322 321 319 318 318 317 317 318 318 318 318 317 317 317
320 319 316 315 316 314 313 312 314 315 320 324 324 323 323 322 323 322 322 321 320 320 321 320 321 320 320 319 318 318 318 318 318 318 318 317 317 316
309 309 310 309 311 309 309 305 305 305 308 315 320 322 322 322 321 321 321 313 308 313 316 313 313 316 318 318 318 318 318 318 318 318 317 316 315 314
293 295 297 296 299 302 302 302 299 300 300 301 302 309 313 320 321 320 320 317 317 314 310 301 302 305 308 310 313 316 316 316 316 315 313 312 310 308
287 289 289 290 293 296 298 298 296 295 294 294 294 295 296 302 309 316 320 319 312 310 307 293 295 294 296 298 299 302 304 305 302 302 303 302 299 297
285 285 285 286 289 294 294 294 293 292 292 293 293 294 294 296 301 307 315 306 294 298 301 296 292 290 291 291 291 293 293 291 293 290 290 290 288 289
283 282 283 284 284 288 289 289 288 287 289 292 293 293 292 292 294 300 303 308 297 293 297 294 290 290 286 287 287 286 287 286 286 287 285 285 286 284
282 281 281 282 282 283 284 284 284 285 285 286 286 286 286 285 285 289 294 297 301 293 295 297 292 289 287 285 285 284 284 283 283 282 282 282 282 282
283 283 282 282 281 281 281 282 283 284 283 282 281 281 281 282 282 282 284 289 291 293 292 293 291 289 285 284 282 284 284 283 282 281 281 281 281 282
283 283 283 283 283 283 282 282 282 281 281 281 280 280 280 281 283 283 283 283 285 288 291 294 293 289 287 284 282 281 281 281 281 281 280 280 279 278
284 283 283 284 283 283 282 282 283 283 282 282 281 280 280 280 280 281 281 281 280 280 283 284 287 290 283 282 281 280 280 280 280 280 280 280 280 280
282 282 282 282 282 282 282 281 281 282 282 283 283 283 283 281 280 280 280 280 280 280 279 280 282 282 282 281 281 281 280 280 280 280 280 280 279 279
281 280 280 280 280 280 280 280 280 279 280 281 282 282 282 282 281 280 280 280 280 280 280 281 281 280 280 279 280 280 279 278 278 279 279 280 280 279
279 279 279 279 278 278 278 278 278 278 279 279 280 280 281 281 281 280 280 279 278 278 278 279 281 282 281 278 276 277 278 277 277 277 277 278 279 278
277 277 276 276 276 277 277 277 277 277 278 278 278 279 280 280 280 279 279 278 278 277 277 276 277 279 279 278 276 274 277 277 277 277 276 276 276 276
275 275 275 275 275 275 275 275 276 276 276 277 277 278 278 278 278 278 277 276 277 276 275 275 275 276 276 276 275 274 273 274 275 275 275 276 277 277
273 273 273 273 272 273 273 273 274 274 274 275 276 276 277 277 277 277 277 276 276 275 274 274 275 275 277 277 276 275 274 272 271 271 271 274 276 278
271 271 271 271 270 271 271 272 272 272 272 273 273 274 274 275 276 276 276 275 275 275 275 275 275 275 276 276 275 274 273 274 274 273 273 272 272 271

GFSNE_925_thetae_120.txt.gz
Theta_e
333 333 333 333 334 334 334 332 330 329 328 330 330 330 330 328 327 326 326 325 324 325 325 325 322 323 322 321 319 319 318 317 316 316 316 315 316 316
333 334 333 334 333 334 334 333 331 330 330 330 330 329 329 329 328 326 324 324 325 324 324 325 324 321 322 322 320 319 318 318 316 316 315 315 315 316
333 333 333 333 335 335 333 333 331 331 329 329 329 329 328 328 327 326 325 323 323 323 323 324 324 321 321 321 321 320 319 318 317 316 316 315 315 315
332 332 332 333 333 333 333 332 331 330 329 328 329 328 328 327 327 326 325 324 322 322 322 322 323 322 321 320 321 320 320 319 318 317 316 316 315 315
332 331 332 332 332 333 332 330 330 329 329 328 327 327 327 326 326 326 326 324 323 323 322 322 323 323 321 320 319 319 319 319 319 318 317 317 316 316
331 330 329 328 329 328 328 324 323 323 324 326 326 325 326 326 325 325 325 324 322 322 322 322 322 323 323 323 321 319 318 318 318 319 319 318 317 317
310 310 310 307 311 314 315 321 318 314 313 316 318 320 323 324 323 323 324 323 322 321 322 322 322 322 322 323 322 320 319 318 318 318 317 318 318 318
296 298 300 303 303 303 305 307 308 306 305 307 310 314 316 319 321 322 322 322 314 320 320 318 320 320 320 321 322 322 319 318 317 317 317 317 317 318
291 291 290 292 296 300 300 301 301 299 298 298 298 298 298 301 299 301 309 320 319 320 318 314 312 311 312 315 317 320 321 319 317 317 317 317 317 317
286 288 288 289 291 294 297 296 294 294 293 293 292 292 292 291 292 294 298 300 307 314 313 301 300 299 300 302 305 308 313 319 318 317 317 316 315 312
283 284 285 285 287 290 291 291 290 289 289 290 290 290 291 291 291 295 295 296 300 305 305 304 294 292 293 293 294 295 300 307 312 311 312 307 305 303
283 283 283 283 283 285 286 285 285 285 287 288 288 289 288 288 289 288 287 289 298 295 300 298 291 293 287 287 290 291 291 290 290 292 294 290 291 292
284 284 284 284 283 283 283 282 282 283 283 283 284 284 285 285 285 286 286 286 285 294 295 296 292 291 289 286 285 286 288 286 285 285 285 288 288 290
284 284 284 284 283 283 283 283 283 283 282 282 281 281 281 282 283 283 284 285 285 285 289 293 293 292 286 285 284 284 284 283 283 283 283 283 285 284
283 283 283 283 283 282 282 282 283 283 284 283 282 282 281 281 282 283 283 284 285 287 289 291 292 292 290 284 284 282 281 281 282 282 282 282 282 282
282 281 281 281 281 281 281 280 281 281 282 283 283 283 282 282 281 281 281 282 281 281 283 286 287 288 285 284 282 281 280 280 280 281 281 281 281 281
281 280 280 280 280 279 279 279 279 279 280 281 282 282 282 282 281 280 281 280 281 281 280 280 282 283 282 282 281 281 280 280 280 280 280 280 280 280
278 278 278 278 278 278 278 278 278 278 279 279 280 280 282 281 281 280 279 279 279 279 279 282 281 281 280 280 281 280 280 280 281 280 280 280 279 279
277 276 276 276 276 276 276 277 277 277 277 278 278 278 279 279 280 279 279 278 278 278 277 279 281 280 279 277 277 279 279 279 279 279 280 280 279 278
274 275 274 274 274 274 275 275 276 276 276 276 276 277 278 278 278 277 277 277 277 277 276 276 277 278 279 278 275 274 278 278 278 277 277 278 277 277
272 272 273 272 272 272 272 273 273 274 274 274 275 275 276 278 278 277 277 276 276 276 275 275 276 277 276 276 275 273 275 277 277 276 276 276 276 276
270 270 271 271 270 270 270 270 271 271 271 271 273 273 274 275 276 276 276 276 275 275 275 275 276 277 277 276 274 273 272 271 272 274 275 276 277 278
269 268 269 269 268 268 268 268 269 269 269 269 270 271 273 274 274 275 275 275 275 275 275 275 275 276 276 275 275 274 273 273 273 272 273 272 272 274

GFSNE_925_thetae_123.txt.gz
Theta_e
326 329 333 333 333 333 334 333 329 327 329 328 330 330 331 331 330 329 328 326 325 324 325 325 325 324 324 324 323 321 319 317 317 316 316 316 316 315
333 333 333 332 331 332 333 333 332 328 326 327 328 329 330 330 330 329 328 327 326 325 324 325 325 325 325 324 324 323 321 319 317 317 316 315 316 315
334 333 332 332 331 331 332 333 332 331 327 328 329 329 329 330 329 329 328 327 326 325 323 324 324 323 325 325 323 323 323 321 319 318 317 316 315 315
333 333 332 332 331 331 332 332 331 331 329 327 328 329 328 327 328 328 328 327 326 325 325 323 321 322 322 323 324 323 323 322 321 319 318 317 316 315
333 332 332 332 332 331 333 331 330 329 329 329 327 327 327 327 327 327 327 327 326 325 325 324 322 321 322 321 323 322 322 322 322 320 319 318 317 316
325 329 326 329 330 331 332 331 329 328 328 328 327 326 326 326 326 326 326 325 325 325 324 323 323 322 322 322 322 323 321 320 322 321 320 319 318 317
299 302 302 304 311 319 320 322 325 324 319 320 319 320 322 324 324 324 323 323 323 324 323 323 323 322 321 322 322 322 322 320 320 319 320 320 319 318
292 292 294 299 299 302 305 306 308 310 310 310 311 312 313 312 311 312 311 319 320 322 322 321 320 320 320 321 321 321 322 322 320 320 319 320 319 319
287 288 289 292 296 295 296 295 295 296 298 299 302 299 297 297 297 299 300 301 306 315 312 319 318 319 318 317 317 318 319 320 321 321 321 320 319 318
285 285 286 288 291 293 294 293 290 290 290 291 291 289 290 290 292 292 293 294 298 305 308 307 313 311 309 308 310 313 313 313 314 313 314 320 318 318
285 285 284 284 285 290 290 287 287 286 286 287 285 285 286 285 290 293 291 290 296 302 305 306 303 298 296 296 298 301 305 307 308 309 308 309 316 316
285 284 284 284 284 284 285 284 283 283 284 285 286 285 285 284 284 285 285 286 289 296 294 297 293 294 290 289 290 292 295 298 302 304 303 304 306 308
284 284 284 283 283 283 283 284 283 284 283 283 283 283 283 283 283 283 283 283 283 288 291 292 292 292 290 286 286 286 288 289 291 290 289 290 294 295
282 282 282 282 282 281 281 282 283 283 284 283 283 282 282 281 282 283 283 283 282 282 286 289 291 292 287 285 284 284 284 284 285 285 286 284 285 286
280 280 280 279 279 279 279 280 280 280 281 282 282 282 281 281 281 282 283 282 282 283 285 287 290 292 290 286 284 282 283 282 284 284 284 285 285 286
278 277 278 278 278 277 277 277 278 279 279 280 280 281 281 281 280 280 280 281 281 281 282 283 286 287 287 286 284 282 281 280 282 282 283 282 282 282
276 276 275 276 275 276 276 276 277 277 278 278 278 279 280 280 279 279 279 279 278 278 280 280 281 283 283 282 281 281 280 280 281 281 281 280 281 281
274 273 273 273 274 274 274 274 275 275 276 277 277 278 278 278 278 278 278 278 277 277 278 281 281 280 280 280 280 280 280 280 280 281 280 280 279 279
272 272 272 271 272 272 272 272 273 273 274 274 275 275 276 278 277 277 277 277 277 276 276 278 279 279 277 276 277 279 280 280 280 280 280 280 278 278
270 271 271 270 270 270 270 270 270 271 271 272 272 273 274 276 277 277 276 276 276 276 276 276 277 277 277 274 274 274 279 279 279 278 278 279 278 278
268 268 269 268 268 268 268 268 268 268 268 269 270 271 272 274 275 275 275 275 275 275 275 276 276 276 276 276 274 274 276 277 278 278 277 277 276 276
268 267 267 267 266 267 267 266 266 266 266 267 268 269 270 272 273 274 275 274 275 275 275 276 277 277 276 275 274 273 272 275 276 276 277 277 277 277
268 268 267 267 266 265 265 265 265 264 264 265 266 267 268 269 271 272 273 273 273 274 274 275 276 276 276 275 274 273 272 273 272 273 274 275 276 275

GFSNE_925_thetae_129.txt.gz
Theta_e
326 330 331 330 329 328 325 323 326 327 327 328 330 331 330 331 333 332 332 330 330 330 329 329 328 327 326 326 325 325 324 323 320 318 317 316 316 316
324 328 329 329 327 325 325 324 325 328 329 327 329 330 330 331 332 332 331 330 329 329 329 328 328 327 325 326 325 323 323 324 323 320 319 317 317 316
323 327 327 326 326 324 323 323 325 328 329 328 328 327 329 330 330 330 331 331 330 329 329 328 327 326 325 324 324 325 324 324 324 324 321 319 318 317
323 325 325 325 323 321 322 324 324 324 327 328 328 328 326 328 329 329 329 330 329 330 329 328 327 327 326 325 323 323 324 323 324 324 324 323 320 319
314 316 316 322 323 322 323 324 323 323 323 325 327 327 326 326 327 327 328 328 328 328 328 327 327 326 326 325 324 323 322 322 323 324 324 323 322 321
297 299 301 304 307 314 320 325 324 323 323 325 326 325 325 325 326 325 325 326 326 326 325 326 326 326 326 326 325 323 323 321 321 321 320 320 321 321
291 292 293 293 298 304 309 309 315 323 326 328 327 325 323 324 324 324 324 323 323 324 323 324 323 323 324 323 323 323 322 322 321 320 320 320 320 320
287 288 290 291 291 295 297 296 298 311 302 299 325 323 315 310 314 317 319 318 318 318 321 321 321 320 320 319 319 319 319 320 319 318 319 320 320 320
284 285 285 287 288 289 289 289 290 293 294 293 288 287 289 288 292 299 303 305 307 307 305 309 315 317 315 315 316 317 316 316 316 317 317 318 319 318
283 282 283 283 285 286 286 285 285 285 287 288 290 290 289 289 289 291 290 294 299 298 300 298 304 307 308 308 309 310 310 311 310 310 311 312 314 314
280 282 281 282 282 283 284 284 283 283 284 284 284 285 290 290 291 292 290 292 293 293 291 292 295 299 303 302 301 300 300 302 304 304 305 307 308 309
279 279 280 281 281 281 281 281 282 282 282 283 283 283 284 284 284 287 284 285 286 291 284 287 291 293 294 293 293 294 295 296 297 297 299 303 304 304
276 276 278 279 279 279 279 279 280 280 280 281 280 280 280 281 281 282 282 282 282 283 282 283 285 289 291 290 290 292 291 292 294 295 295 297 298 300
275 275 275 276 276 276 276 276 277 277 278 279 279 279 279 279 280 280 281 282 281 281 281 281 282 284 286 288 289 288 289 288 288 289 290 291 291 292
272 273 273 272 272 272 274 273 274 274 275 275 276 277 277 278 278 279 280 281 281 281 281 281 281 282 283 286 287 286 285 285 285 286 286 287 287 287
270 269 269 269 269 270 270 270 270 271 271 272 273 274 275 277 277 277 277 278 279 279 280 280 280 281 281 282 283 284 283 283 283 283 284 284 284 284
268 268 267 268 267 267 268 268 268 268 268 269 270 271 272 274 275 275 275 276 276 276 276 279 280 280 280 281 281 280 281 281 281 282 282 281 281 282
267 266 266 266 266 266 266 266 265 265 266 268 268 269 269 271 272 274 274 274 275 275 275 276 276 278 279 279 279 279 280 280 281 281 281 279 279 280
266 266 265 265 265 265 264 264 263 264 265 266 267 267 268 269 270 271 272 272 273 274 275 276 275 275 272 271 278 278 279 280 280 280 280 279 278 279
267 266 266 265 265 264 263 263 263 263 264 264 265 266 267 267 267 269 270 270 271 273 274 275 275 276 274 271 274 277 278 280 280 278 278 278 277 278
267 267 266 266 265 265 264 264 264 263 263 263 264 265 266 266 266 267 268 270 270 271 271 273 274 276 276 276 274 275 276 277 279 279 277 277 276 276
268 267 267 266 266 265 265 264 264 264 263 263 263 264 265 265 266 266 267 267 268 269 270 272 274 275 275 275 274 273 274 275 276 277 277 277 277 276
268 268 267 267 266 266 265 265 264 264 263 262 262 263 264 264 265 266 266 267 268 268 269 271 273 275 274 274 274 274 274 274 275 275 275 276 277 277

GFSNE_925_thetae_135.txt.gz
Theta_e
306 309 313 317 325 325 326 326 326 327 327 325 325 326 326 324 325 325 326 326 329 330 332 332 330 331 330 329 329 329 328 327 325 324 323 321 318 317
305 308 309 312 319 325 325 325 326 326 327 323 323 324 325 323 324 324 326 324 326 328 329 331 331 331 330 329 328 328 328 327 325 325 325 323 321 319
308 309 312 313 313 318 324 325 325 323 324 324 325 321 322 322 325 327 325 325 327 328 327 329 330 330 330 329 328 328 327 326 325 326 324 324 323 321
295 296 296 304 310 318 320 324 326 326 326 327 325 324 324 322 323 325 324 326 326 326 327 327 328 329 329 329 329 328 328 327 326 326 325 324 324 323
289 291 290 291 294 299 305 310 318 325 324 325 325 324 325 326 326 325 325 325 326 325 325 325 327 328 329 329 328 328 328 328 327 326 324 324 324 324
286 287 288 287 287 290 290 295 299 307 321 324 324 325 326 326 325 326 326 326 325 324 324 325 328 327 326 328 327 327 328 327 326 325 324 323 324 324
284 284 285 286 286 285 286 286 291 297 299 304 316 320 321 319 317 315 324 325 325 324 324 324 325 325 325 324 325 325 325 326 326 325 324 323 322 323
282 282 282 283 284 284 283 283 283 285 286 289 288 289 289 286 289 294 300 316 323 313 313 321 321 322 320 320 321 322 322 324 325 324 323 322 322 321
280 280 281 281 281 282 282 282 282 282 282 282 283 282 283 283 285 291 294 295 293 293 299 308 310 313 313 311 315 319 321 321 320 320 320 319 318 319
279 278 278 279 279 281 281 281 280 280 281 281 281 280 281 281 284 286 288 291 293 292 292 294 296 297 296 296 296 299 306 311 311 314 315 314 315 315
275 277 276 277 278 278 278 278 279 279 280 279 279 279 281 280 282 284 283 287 295 286 284 286 290 292 294 294 292 293 293 293 298 299 301 303 307 310
273 274 275 275 275 275 275 275 276 276 277 278 280 280 279 281 280 281 280 282 283 283 282 282 285 287 292 291 291 292 292 292 290 293 294 295 297 300
272 272 272 272 273 272 272 272 273 274 275 276 276 276 277 277 278 279 280 279 280 280 279 280 282 282 284 286 288 288 288 289 288 289 291 290 291 292
271 270 270 270 270 270 270 270 270 272 273 274 274 274 275 275 276 277 277 278 278 278 278 279 280 280 282 285 287 286 285 286 286 286 286 287 287 289
269 269 269 268 268 267 268 267 268 269 270 270 271 272 273 274 274 275 276 277 278 277 277 277 278 278 281 283 284 284 283 283 283 283 284 284 284 285
268 268 267 268 267 267 267 266 266 267 268 268 269 270 271 272 273 274 274 275 276 276 277 277 277 278 281 281 282 282 282 283 282 282 282 282 283 283
268 268 268 268 267 267 267 266 266 266 266 267 268 268 269 270 271 272 273 273 274 275 275 276 277 278 278 279 281 281 281 282 283 282 283 283 283 281
268 268 268 268 267 267 267 266 266 265 265 266 266 266 267 269 269 271 271 271 272 273 274 275 275 277 279 279 278 279 280 281 281 282 282 283 283 281
269 268 268 268 267 267 266 266 265 265 264 265 265 265 265 267 268 269 270 270 271 272 272 273 274 275 277 279 278 277 277 278 280 281 281 282 282 280
269 269 268 268 267 267 266 266 265 265 264 264 264 264 264 266 267 267 268 268 269 270 271 272 272 273 274 276 277 277 276 277 279 280 281 280 279 278
267 267 268 268 267 267 266 266 265 264 264 264 264 264 264 265 265 266 266 266 267 269 270 270 270 270 273 276 277 277 277 276 276 278 279 280 280 280
265 266 266 266 266 266 266 266 266 266 265 264 264 264 263 264 265 265 265 266 267 267 268 269 269 271 273 274 276 276 277 277 276 276 276 277 279 282
263 263 264 264 264 264 264 264 265 265 265 264 264 263 263 264 264 264 264 265 265 266 267 268 269 270 272 273 274 275 276 276 277 277 277 276 276 277

GFSNE_925_thetae_138.txt.gz
Theta_e
300 303 307 309 315 319 321 325 330 331 330 325 324 324 326 331 334 334 333 332 330 327 324 326 329 331 332 332 331 330 330 329 328 327 326 324 322 320
302 304 307 309 313 316 318 323 325 325 326 325 323 322 323 326 327 327 329 327 326 327 326 324 326 329 330 331 331 330 330 330 329 328 327 325 324 321
298 299 302 307 312 316 316 315 323 326 327 326 325 325 324 324 324 323 323 324 324 326 327 324 326 327 328 330 330 330 330 329 329 329 328 327 325 324
291 292 293 297 301 302 305 309 316 319 324 328 325 325 324 323 322 323 322 326 327 328 327 326 325 326 327 328 330 330 329 329 329 329 328 327 326 325
288 288 288 290 293 294 296 298 302 310 313 322 324 323 321 322 323 323 324 325 325 327 327 326 325 325 325 326 327 328 329 328 328 328 328 327 326 325
284 285 286 286 286 289 290 292 296 301 304 306 312 319 317 315 318 314 320 326 326 326 326 325 324 324 324 325 326 326 327 329 328 327 327 327 325 325
282 282 283 284 284 285 286 287 289 291 293 291 292 293 288 289 290 291 299 303 311 307 321 326 324 323 322 324 325 325 324 325 327 325 326 325 325 325
282 282 281 282 282 282 283 283 283 286 285 287 284 285 285 284 285 289 295 300 306 302 301 308 311 312 312 313 317 320 321 323 323 324 325 324 324 324
279 280 280 280 282 284 282 281 281 282 282 284 282 282 283 282 285 288 289 293 293 287 291 300 297 299 297 297 301 306 309 310 312 314 315 319 321 321
276 277 277 277 278 281 283 282 281 280 280 281 281 281 281 282 282 284 286 291 291 286 287 292 290 292 295 294 293 294 295 297 299 302 303 306 309 313
275 275 274 275 276 277 278 279 280 280 280 280 280 280 280 280 281 284 283 285 289 286 281 283 285 287 291 292 292 290 291 292 294 294 294 295 298 302
275 274 273 273 274 274 275 276 277 278 279 279 279 279 279 279 280 281 282 285 285 284 280 281 283 284 288 289 289 289 289 290 290 291 292 292 294 295
274 273 272 272 272 272 272 273 274 276 277 277 278 278 278 278 278 279 280 281 282 283 280 281 284 283 283 285 287 286 285 285 287 288 287 289 289 292
273 272 271 271 271 271 271 271 273 275 276 276 276 276 276 277 277 277 278 279 280 279 279 279 282 282 283 287 288 285 284 284 284 284 285 285 287 288
271 271 271 271 271 271 271 271 271 272 273 274 274 275 275 275 276 277 277 278 279 278 278 279 280 280 283 285 285 286 284 284 284 284 284 283 284 284
273 272 272 272 272 272 271 271 271 271 272 272 272 272 273 274 275 275 276 276 278 277 278 278 278 280 281 282 282 284 283 284 284 284 283 284 284 283
273 273 273 273 272 272 272 271 270 270 270 271 271 271 272 272 273 274 274 275 276 276 277 276 276 278 280 280 281 281 282 282 283 283 283 284 285 283
273 273 273 272 272 271 271 271 270 269 269 270 270 270 270 271 271 272 272 273 274 274 275 276 276 277 278 281 279 280 280 280 281 282 283 284 285 283
273 273 273 272 272 271 271 270 270 269 269 269 269 269 269 270 271 271 271 271 272 272 274 274 275 275 277 278 278 278 278 279 279 281 283 282 283 282
271 271 271 271 271 271 270 270 270 269 268 268 269 268 268 269 270 270 270 269 270 271 272 273 273 273 273 275 276 278 278 278 278 279 281 282 282 280
269 270 269 269 269 269 269 269 269 269 268 268 268 268 267 268 268 268 269 269 269 270 271 271 272 271 272 274 277 278 278 278 277 277 278 280 282 282
267 267 268 268 268 267 267 268 268 268 268 268 268 267 267 267 267 267 268 268 269 269 269 270 270 271 272 274 275 276 277 278 277 277 277 277 279 282
265 265 265 266 265 265 265 266 266 266 267 267 267 267 266 267 267 267 267 267 267 268 268 269 269 270 272 273 274 275 276 277 277 278 279 277 277 277

GFSNE_925_thetae_144.txt.gz
Theta_e
297 300 301 302 302 302 303 307 309 313 315 318 322 324 325 327 329 330 329 330 331 332 333 333 334 334 333 332 332 331 331 331 331 330 329 329 329 328
293 295 296 299 301 303 305 307 310 311 313 315 320 320 323 325 326 326 327 328 329 330 331 333 333 333 332 331 332 332 332 332 332 332 331 330 330 329
287 288 289 292 294 297 301 305 308 312 314 316 319 319 319 318 319 326 326 326 327 329 328 326 323 324 326 326 327 327 330 330 331 331 331 331 331 330
285 285 286 287 288 291 293 297 301 307 310 315 316 316 315 313 317 318 317 319 321 320 322 322 322 321 321 321 322 323 324 325 326 328 328 329 329 330
282 285 285 285 285 286 287 290 295 300 301 306 302 298 300 297 301 306 308 306 310 308 309 314 319 321 322 324 324 316 319 324 326 326 326 326 327 328
281 282 284 285 284 284 284 286 288 290 292 293 290 289 289 290 293 292 298 300 301 301 301 300 300 301 302 310 318 311 312 321 323 322 318 320 321 322
279 279 281 284 283 283 284 283 285 285 286 286 286 285 285 285 287 289 293 297 297 293 297 296 294 295 294 296 298 304 305 304 316 316 312 317 321 315
277 277 278 280 282 283 282 282 282 283 283 283 283 283 283 284 286 289 290 293 295 291 291 292 292 292 292 291 292 293 297 297 299 304 303 306 319 318
275 276 276 277 279 281 281 282 282 282 281 281 281 281 281 281 284 286 290 288 285 283 287 290 288 289 289 289 289 290 292 292 293 297 297 297 302 307
276 275 275 276 278 278 279 280 280 281 281 281 281 281 280 280 282 283 285 288 286 282 282 286 286 286 288 287 287 288 288 288 289 290 292 294 296 297
275 276 275 276 277 277 277 278 279 279 279 280 279 280 279 280 280 281 281 282 287 282 279 283 284 284 287 288 288 287 286 286 286 286 288 290 292 294
275 275 276 276 276 276 276 276 277 277 277 277 277 277 278 278 279 278 280 280 280 281 279 280 282 282 284 287 287 285 285 285 286 286 286 286 289 291
275 276 276 276 276 275 275 275 276 276 276 276 276 276 276 277 277 277 278 280 279 279 278 278 280 280 282 283 284 283 285 285 285 284 284 285 285 286
276 276 276 276 276 275 274 274 274 274 275 274 274 274 275 275 276 276 276 278 280 279 278 278 278 278 280 282 283 282 283 282 283 282 283 284 285 285
277 277 276 276 275 275 274 273 273 273 273 273 273 273 274 274 275 274 275 275 276 276 277 277 277 277 279 280 280 282 282 282 281 280 280 282 284 285
277 277 276 276 275 275 274 273 272 272 273 273 272 272 272 273 274 273 274 273 274 274 274 275 275 276 277 277 281 278 278 280 280 280 280 281 284 285
276 276 275 275 275 274 274 273 272 272 272 272 271 271 271 272 272 272 273 272 272 272 273 274 274 275 274 274 277 275 276 276 277 279 280 280 281 284
275 274 274 274 273 273 273 272 272 272 271 271 271 270 270 270 271 271 271 270 271 271 272 272 273 273 272 272 273 274 274 275 276 278 280 279 279 280
273 273 272 272 272 272 271 271 271 271 271 271 270 270 269 269 270 270 270 270 269 270 271 271 271 271 270 270 272 273 274 275 278 278 278 279 278 278
271 271 271 271 270 270 269 269 269 270 269 269 270 270 269 269 269 269 269 269 269 269 269 270 270 270 270 270 271 272 274 274 275 277 278 278 278 278
270 269 269 269 268 268 268 267 267 268 268 268 268 268 268 268 268 268 268 268 268 268 268 268 268 268 269 270 270 271 272 273 274 275 276 277 278 278
268 268 267 267 267 266 266 265 266 266 266 267 266 266 266 267 268 268 268 267 267 267 267 267 267 267 268 269 269 270 271 272 272 274 275 277 278 278
266 266 265 265 265 264 263 263 263 264 264 264 264 264 264 265 267 267 267 267 267 266 266 267 266 267 267 268 269 270 270 271 272 274 275 277 277 276